Observation data for Hackberry on 05/25/2019      Previous  Date  Next       Current Mesonet Observations  Soil Data  Daily Summary Page  Observations in Plain Language
KHA3 250500Z 11010KT 18/18 A2996 RMK A01 T01780175  RH  098%=      5-min Rain = 0
KHA3 250501Z 10010KT 18/18 A2996 RMK A01 T01780175  RH  098%=      5-min Rain = 0
KHA3 250502Z 11011KT 18/18 A2996 RMK A01 T01780175  RH  098%=      5-min Rain = 0
KHA3 250503Z 11010KT 18/18 A2996 RMK A01 T01780175  RH  098%=      5-min Rain = 0
KHA3 250504Z 11011KT 18/18 A2996 RMK A01 T01780175  RH  098%=      5-min Rain = 0
KHA3 250505Z 11012KT 18/18 A2996 RMK A01 T01780175  RH  098%=      5-min Rain = 0
KHA3 250506Z 11012KT 18/18 A2996 RMK A01 T01780175  RH  098%=      5-min Rain = 0
KHA3 250507Z 11012KT 18/18 A2996 RMK A01 T01780175  RH  098%=      5-min Rain = 0
KHA3 250508Z 11014KT 18/18 A2996 RMK A01 T01780175  RH  098%=      5-min Rain = 0
KHA3 250509Z 11013KT 18/18 A2996 RMK A01 T01790176  RH  098%=      5-min Rain = 0
KHA3 250510Z 11012KT 18/18 A2996 RMK A01 T01780175  RH  098%=      5-min Rain = 0
KHA3 250511Z 11013KT 18/18 A2996 RMK A01 T01790176  RH  098%=      5-min Rain = 0
KHA3 250512Z 11011KT 18/18 A2996 RMK A01 T01790176  RH  098%=      5-min Rain = 0
KHA3 250513Z 11012KT 18/18 A2996 RMK A01 T01790176  RH  098%=      5-min Rain = 0
KHA3 250514Z 11012KT 18/18 A2996 RMK A01 T01790176  RH  098%=      5-min Rain = 0
KHA3 250515Z 10011KT 18/18 A2996 RMK A01 T01790176  RH  098%=      5-min Rain = 0
KHA3 250516Z 11012KT 18/18 A2996 RMK A01 T01800176  RH  098%=      5-min Rain = 0
KHA3 250517Z 11012KT 18/18 A2996 RMK A01 T01790176  RH  098%=      5-min Rain = 0
KHA3 250518Z 11011KT 18/18 A2996 RMK A01 T01800176  RH  098%=      5-min Rain = 0
KHA3 250519Z 10012KT 18/18 A2996 RMK A01 T01800176  RH  098%=      5-min Rain = 0
KHA3 250520Z 11013KT 18/18 A2996 RMK A01 T01790176  RH  098%=      5-min Rain = 0
KHA3 250521Z 10011KT 18/18 A2996 RMK A01 T01800177  RH  098%=      5-min Rain = 0
KHA3 250522Z 10012KT 18/18 A2996 RMK A01 T01800177  RH  098%=      5-min Rain = 0
KHA3 250523Z 10013KT 18/18 A2996 RMK A01 T01800177  RH  098%=      5-min Rain = 0
KHA3 250524Z 10012KT 18/18 A2996 RMK A01 T01800176  RH  098%=      5-min Rain = 0
KHA3 250525Z 10012KT 18/18 A2996 RMK A01 T01800176  RH  098%=      5-min Rain = 0
KHA3 250526Z 11013KT 18/18 A2996 RMK A01 T01800177  RH  098%=      5-min Rain = 0
KHA3 250527Z 11012KT 18/18 A2996 RMK A01 T01800177  RH  098%=      5-min Rain = 0
KHA3 250528Z 10013KT 18/18 A2996 RMK A01 T01800177  RH  098%=      5-min Rain = 0
KHA3 250529Z 10011KT 18/18 A2995 RMK A01 T01800176  RH  098%=      5-min Rain = 0
KHA3 250530Z 11014KT 18/18 A2995 RMK A01 T01800176  RH  098%=      5-min Rain = 0
KHA3 250531Z 10014KT 18/18 A2995 RMK A01 T01800177  RH  098%=      5-min Rain = 0
KHA3 250532Z 10013KT 18/18 A2996 RMK A01 T01800177  RH  098%=      5-min Rain = 0
KHA3 250533Z 10012KT 18/18 A2996 RMK A01 T01800176  RH  098%=      5-min Rain = 0
KHA3 250534Z 10014KT 18/18 A2995 RMK A01 T01800176  RH  098%=      5-min Rain = 0
KHA3 250535Z 11013KT 18/18 A2996 RMK A01 T01790176  RH  098%=      5-min Rain = 0
KHA3 250536Z 11013KT 18/18 A2996 RMK A01 T01790176  RH  098%=      5-min Rain = 0
KHA3 250537Z 11014KT 18/18 A2996 RMK A01 T01800176  RH  098%=      5-min Rain = 0
KHA3 250538Z 11014KT 18/18 A2996 RMK A01 T01790175  RH  098%=      5-min Rain = 0
KHA3 250539Z 11015KT 18/18 A2995 RMK A01 T01790175  RH  098%=      5-min Rain = 0
KHA3 250540Z 11013KT 18/18 A2995 RMK A01 T01790175  RH  098%=      5-min Rain = 0
KHA3 250541Z 10013KT 18/18 A2995 RMK A01 T01790175  RH  098%=      5-min Rain = 0
KHA3 250542Z 10014KT 18/18 A2995 RMK A01 T01790175  RH  097%=      5-min Rain = 0
KHA3 250543Z 10014KT 18/18 A2995 RMK A01 T01790175  RH  097%=      5-min Rain = 0
KHA3 250544Z 11012KT 18/18 A2996 RMK A01 T01790175  RH  097%=      5-min Rain = 0
KHA3 250545Z 10015KT 18/18 A2996 RMK A01 T01790175  RH  097%=      5-min Rain = 0
KHA3 250546Z 10014KT 18/18 A2996 RMK A01 T01790175  RH  097%=      5-min Rain = 0
KHA3 250547Z 11014KT 18/17 A2995 RMK A01 T01790174  RH  097%=      5-min Rain = 0
KHA3 250548Z 10013KT 18/17 A2995 RMK A01 T01790174  RH  097%=      5-min Rain = 0
KHA3 250549Z 11014KT 18/17 A2995 RMK A01 T01780174  RH  097%=      5-min Rain = 0
KHA3 250550Z 11016KT 18/17 A2996 RMK A01 T01780174  RH  097%=      5-min Rain = 0
KHA3 250551Z 11014KT 18/17 A2996 RMK A01 T01790174  RH  097%=      5-min Rain = 0
KHA3 250552Z 11013KT 18/17 A2996 RMK A01 T01790174  RH  097%=      5-min Rain = 0
KHA3 250553Z 10013KT 18/17 A2996 RMK A01 T01780174  RH  097%=      5-min Rain = 0
KHA3 250554Z 10012KT 18/17 A2996 RMK A01 T01790174  RH  097%=      5-min Rain = 0
KHA3 250555Z 11014KT 18/17 A2996 RMK A01 T01780173  RH  097%=      5-min Rain = 0
KHA3 250556Z 11013KT 18/17 A2996 RMK A01 T01780173  RH  097%=      5-min Rain = 0
KHA3 250557Z 11013KT 18/17 A2996 RMK A01 T01780173  RH  097%=      5-min Rain = 0
KHA3 250558Z 11013KT 18/17 A2996 RMK A01 T01780173  RH  097%=      5-min Rain = 0
KHA3 250559Z 10012G17KT 18/17 A2996 RMK A01 T01780173  RH  097%=      5-min Rain = 0
KHA3 250600Z 10013KT 18/17 A2996 RMK A01 T01780173  RH  097%=      5-min Rain = 0
KHA3 250601Z 11011KT 18/17 A2996 RMK A01 T01780173  RH  097%=      5-min Rain = 0
KHA3 250602Z 10013KT 18/17 A2995 RMK A01 T01780173  RH  097%=      5-min Rain = 0
KHA3 250603Z 10012KT 18/17 A2995 RMK A01 T01780173  RH  097%=      5-min Rain = 0
KHA3 250604Z 10014KT 18/17 A2995 RMK A01 T01780173  RH  097%=      5-min Rain = 0
KHA3 250605Z 10012KT 18/17 A2995 RMK A01 T01780173  RH  097%=      5-min Rain = 0
KHA3 250606Z 11014KT 18/17 A2995 RMK A01 T01780173  RH  097%=      5-min Rain = 0
KHA3 250607Z 11015KT 18/17 A2995 RMK A01 T01770172  RH  097%=      5-min Rain = 0
KHA3 250608Z 11013KT 18/17 A2995 RMK A01 T01770172  RH  097%=      5-min Rain = 0
KHA3 250609Z 11014KT 18/17 A2995 RMK A01 T01770172  RH  097%=      5-min Rain = 0
KHA3 250610Z 11014KT 18/17 A2996 RMK A01 T01770172  RH  097%=      5-min Rain = 0
KHA3 250611Z 11011KT 18/17 A2996 RMK A01 T01770172  RH  097%=      5-min Rain = 0
KHA3 250612Z 11013KT 18/17 A2996 RMK A01 T01770172  RH  097%=      5-min Rain = 0
KHA3 250613Z 11013KT 18/17 A2996 RMK A01 T01770172  RH  097%=      5-min Rain = 0
KHA3 250614Z 11013KT 18/17 A2995 RMK A01 T01770172  RH  097%=      5-min Rain = 0
KHA3 250615Z 11013KT 18/17 A2995 RMK A01 T01770172  RH  097%=      5-min Rain = 0
KHA3 250616Z 11012KT 18/17 A2995 RMK A01 T01770172  RH  096%=      5-min Rain = 0
KHA3 250617Z 11013KT 18/17 A2995 RMK A01 T01770172  RH  096%=      5-min Rain = 0
KHA3 250618Z 11013KT 18/17 A2995 RMK A01 T01770172  RH  096%=      5-min Rain = 0
KHA3 250619Z 11013KT 18/17 A2995 RMK A01 T01770172  RH  096%=      5-min Rain = 0
KHA3 250620Z 10012KT 18/17 A2995 RMK A01 T01770172  RH  096%=      5-min Rain = 0
KHA3 250621Z 11013KT 18/17 A2995 RMK A01 T01770171  RH  096%=      5-min Rain = 0
KHA3 250622Z 11015KT 18/17 A2995 RMK A01 T01770171  RH  096%=      5-min Rain = 0
KHA3 250623Z 11013KT 18/17 A2995 RMK A01 T01770171  RH  096%=      5-min Rain = 0
KHA3 250624Z 11013KT 18/17 A2996 RMK A01 T01770171  RH  096%=      5-min Rain = 0
KHA3 250625Z 11013KT 18/17 A2996 RMK A01 T01770171  RH  096%=      5-min Rain = 0
KHA3 250626Z 11014KT 18/17 A2995 RMK A01 T01770171  RH  096%=      5-min Rain = 0
KHA3 250627Z 11013KT 18/17 A2996 RMK A01 T01770171  RH  096%=      5-min Rain = 0
KHA3 250628Z 11013KT 18/17 A2996 RMK A01 T01770171  RH  096%=      5-min Rain = 0
KHA3 250629Z 11012KT 18/17 A2996 RMK A01 T01770171  RH  096%=      5-min Rain = 0
KHA3 250630Z 11014KT 18/17 A2995 RMK A01 T01770171  RH  096%=      5-min Rain = 0
KHA3 250631Z 11013KT 18/17 A2996 RMK A01 T01770171  RH  096%=      5-min Rain = 0
KHA3 250632Z 11013KT 18/17 A2996 RMK A01 T01770170  RH  096%=      5-min Rain = 0
KHA3 250633Z 11012KT 18/17 A2996 RMK A01 T01770170  RH  096%=      5-min Rain = 0
KHA3 250634Z 11013KT 18/17 A2996 RMK A01 T01770170  RH  096%=      5-min Rain = 0
KHA3 250635Z 11011KT 18/17 A2996 RMK A01 T01770170  RH  096%=      5-min Rain = 0
KHA3 250636Z 11013KT 18/17 A2996 RMK A01 T01770170  RH  096%=      5-min Rain = 0
KHA3 250637Z 11013KT 18/17 A2996 RMK A01 T01770170  RH  096%=      5-min Rain = 0
KHA3 250638Z 11014KT 18/17 A2996 RMK A01 T01770170  RH  096%=      5-min Rain = 0
KHA3 250639Z 11013KT 18/17 A2996 RMK A01 T01770170  RH  096%=      5-min Rain = 0
KHA3 250640Z 11014KT 18/17 A2996 RMK A01 T01770170  RH  096%=      5-min Rain = 0
KHA3 250641Z 11013KT 18/17 A2996 RMK A01 T01770170  RH  096%=      5-min Rain = 0
KHA3 250642Z 11013KT 18/17 A2996 RMK A01 T01770170  RH  096%=      5-min Rain = 0
KHA3 250643Z 11013KT 18/17 A2996 RMK A01 T01780171  RH  096%=      5-min Rain = 0
KHA3 250644Z 11012KT 18/17 A2995 RMK A01 T01770170  RH  096%=      5-min Rain = 0
KHA3 250645Z 11013KT 18/17 A2995 RMK A01 T01770170  RH  096%=      5-min Rain = 0
KHA3 250646Z 11013KT 18/17 A2995 RMK A01 T01770170  RH  096%=      5-min Rain = 0
KHA3 250647Z 11013KT 18/17 A2995 RMK A01 T01770170  RH  096%=      5-min Rain = 0
KHA3 250648Z 11013KT 18/17 A2995 RMK A01 T01770170  RH  096%=      5-min Rain = 0
KHA3 250649Z 11012KT 18/17 A2995 RMK A01 T01770170  RH  096%=      5-min Rain = 0
KHA3 250650Z 11014KT 18/17 A2995 RMK A01 T01770170  RH  096%=      5-min Rain = 0
KHA3 250651Z 11012KT 18/17 A2995 RMK A01 T01780170  RH  096%=      5-min Rain = 0
KHA3 250652Z 11013KT 18/17 A2995 RMK A01 T01780170  RH  095%=      5-min Rain = 0
KHA3 250653Z 11012KT 18/17 A2995 RMK A01 T01780170  RH  095%=      5-min Rain = 0
KHA3 250654Z 11012KT 18/17 A2995 RMK A01 T01780171  RH  095%=      5-min Rain = 0
KHA3 250655Z 11012KT 18/17 A2995 RMK A01 T01780171  RH  096%=      5-min Rain = 0
KHA3 250656Z 11014KT 18/17 A2995 RMK A01 T01780171  RH  096%=      5-min Rain = 0
KHA3 250657Z 11011KT 18/17 A2995 RMK A01 T01780171  RH  096%=      5-min Rain = 0
KHA3 250658Z 12012KT 18/17 A2995 RMK A01 T01780171  RH  096%=      5-min Rain = 0
KHA3 250659Z 11012KT 18/17 A2995 RMK A01 T01780171  RH  096%=      5-min Rain = 0
KHA3 250700Z 11013KT 18/17 A2995 RMK A01 T01780171  RH  096%=      5-min Rain = 0
KHA3 250701Z 11013KT 18/17 A2995 RMK A01 T01780171  RH  096%=      5-min Rain = 0
KHA3 250702Z 11014KT 18/17 A2995 RMK A01 T01780172  RH  096%=      5-min Rain = 0
KHA3 250703Z 12012KT 18/17 A2995 RMK A01 T01780172  RH  096%=      5-min Rain = 0
KHA3 250704Z 11013KT 18/17 A2995 RMK A01 T01780172  RH  096%=      5-min Rain = 0
KHA3 250705Z 11013KT 18/17 A2995 RMK A01 T01780172  RH  096%=      5-min Rain = 0
KHA3 250706Z 12013KT 18/17 A2995 RMK A01 T01790172  RH  096%=      5-min Rain = 0
KHA3 250707Z 11012KT 18/17 A2994 RMK A01 T01790172  RH  096%=      5-min Rain = 0
KHA3 250708Z 11012KT 18/17 A2994 RMK A01 T01790172  RH  096%=      5-min Rain = 0
KHA3 250709Z 11013KT 18/17 A2994 RMK A01 T01790173  RH  096%=      5-min Rain = 0
KHA3 250710Z 11012KT 18/17 A2994 RMK A01 T01790173  RH  096%=      5-min Rain = 0
KHA3 250711Z 11014KT 18/17 A2994 RMK A01 T01790173  RH  096%=      5-min Rain = 0
KHA3 250712Z 11013KT 18/17 A2994 RMK A01 T01800174  RH  096%=      5-min Rain = 0
KHA3 250713Z 11013KT 18/17 A2994 RMK A01 T01800173  RH  096%=      5-min Rain = 0
KHA3 250714Z 11012KT 18/17 A2994 RMK A01 T01800174  RH  096%=      5-min Rain = 0
KHA3 250715Z 12013KT 18/17 A2994 RMK A01 T01800174  RH  096%=      5-min Rain = 0
KHA3 250716Z 11014KT 18/17 A2994 RMK A01 T01800174  RH  096%=      5-min Rain = 0
KHA3 250717Z 11014KT 18/17 A2994 RMK A01 T01800174  RH  096%=      5-min Rain = 0
KHA3 250718Z 11014KT 18/17 A2994 RMK A01 T01800174  RH  096%=      5-min Rain = 0
KHA3 250719Z 12014KT 18/18 A2994 RMK A01 T01810175  RH  096%=      5-min Rain = 0
KHA3 250720Z 11015KT 18/18 A2994 RMK A01 T01810175  RH  096%=      5-min Rain = 0
KHA3 250721Z 12014KT 18/18 A2994 RMK A01 T01810175  RH  096%=      5-min Rain = 0
KHA3 250722Z 11014KT 18/18 A2994 RMK A01 T01810175  RH  096%=      5-min Rain = 0
KHA3 250723Z 12013KT 18/18 A2994 RMK A01 T01810175  RH  096%=      5-min Rain = 0
KHA3 250724Z 11012KT 18/18 A2993 RMK A01 T01810175  RH  096%=      5-min Rain = 0
KHA3 250725Z 11013KT 18/18 A2993 RMK A01 T01810175  RH  096%=      5-min Rain = 0
KHA3 250726Z 12013KT 18/18 A2993 RMK A01 T01810175  RH  096%=      5-min Rain = 0
KHA3 250727Z 11013KT 18/18 A2993 RMK A01 T01810175  RH  096%=      5-min Rain = 0
KHA3 250728Z 11013KT 18/18 A2993 RMK A01 T01810175  RH  096%=      5-min Rain = 0
KHA3 250729Z 11015KT 18/18 A2993 RMK A01 T01810175  RH  096%=      5-min Rain = 0
KHA3 250730Z 11013KT 18/18 A2993 RMK A01 T01810175  RH  096%=      5-min Rain = 0
KHA3 250731Z 11014KT 18/18 A2993 RMK A01 T01810175  RH  096%=      5-min Rain = 0
KHA3 250732Z 11015KT 18/18 A2993 RMK A01 T01810176  RH  096%=      5-min Rain = 0
KHA3 250733Z 11015KT 18/18 A2993 RMK A01 T01810176  RH  096%=      5-min Rain = 0
KHA3 250734Z 12013KT 18/18 A2993 RMK A01 T01820176  RH  096%=      5-min Rain = 0
KHA3 250735Z 11015KT 18/18 A2993 RMK A01 T01810176  RH  096%=      5-min Rain = 0
KHA3 250736Z 11012KT 18/18 A2993 RMK A01 T01810176  RH  096%=      5-min Rain = 0
KHA3 250737Z 11014KT 18/18 A2993 RMK A01 T01810176  RH  097%=      5-min Rain = 0
KHA3 250738Z 11015KT 18/18 A2993 RMK A01 T01810176  RH  097%=      5-min Rain = 0
KHA3 250739Z 11013KT 18/18 A2993 RMK A01 T01810176  RH  097%=      5-min Rain = 0
KHA3 250740Z 11014KT 18/18 A2993 RMK A01 T01820177  RH  097%=      5-min Rain = 0
KHA3 250741Z 11014KT 18/18 A2993 RMK A01 T01820177  RH  097%=      5-min Rain = 0
KHA3 250742Z 11014KT 18/18 A2993 RMK A01 T01820176  RH  097%=      5-min Rain = 0
KHA3 250743Z 11013KT 18/18 A2993 RMK A01 T01820177  RH  097%=      5-min Rain = 0
KHA3 250744Z 11014KT 18/18 A2993 RMK A01 T01820177  RH  097%=      5-min Rain = 0
KHA3 250745Z 11012KT 18/18 A2993 RMK A01 T01820177  RH  097%=      5-min Rain = 0
KHA3 250746Z 11013KT 18/18 A2993 RMK A01 T01820177  RH  097%=      5-min Rain = 0
KHA3 250747Z 11012KT 18/18 A2992 RMK A01 T01820177  RH  097%=      5-min Rain = 0
KHA3 250748Z 11012KT 18/18 A2993 RMK A01 T01820177  RH  097%=      5-min Rain = 0
KHA3 250749Z 11012KT 18/18 A2993 RMK A01 T01820177  RH  097%=      5-min Rain = 0
KHA3 250750Z 11013KT 18/18 A2993 RMK A01 T01820177  RH  097%=      5-min Rain = 0
KHA3 250751Z 11012KT 18/18 A2992 RMK A01 T01820177  RH  097%=      5-min Rain = 0
KHA3 250752Z 11013KT 18/18 A2992 RMK A01 T01820177  RH  097%=      5-min Rain = 0
KHA3 250753Z 11013KT 18/18 A2992 RMK A01 T01820177  RH  097%=      5-min Rain = 0
KHA3 250754Z 11012KT 18/18 A2993 RMK A01 T01820178  RH  097%=      5-min Rain = 0
KHA3 250755Z 12012KT 18/18 A2992 RMK A01 T01820177  RH  097%=      5-min Rain = 0
KHA3 250756Z 11012KT 18/18 A2993 RMK A01 T01820178  RH  097%=      5-min Rain = 0
KHA3 250757Z 11011KT 18/18 A2993 RMK A01 T01820178  RH  097%=      5-min Rain = 0
KHA3 250758Z 11010KT 18/18 A2993 RMK A01 T01820178  RH  097%=      5-min Rain = 0
KHA3 250759Z 12011KT 18/18 A2993 RMK A01 T01820178  RH  097%=      5-min Rain = 0
KHA3 250800Z 11009KT 18/18 A2993 RMK A01 T01820178  RH  097%=      5-min Rain = 0
KHA3 250801Z 11010KT 18/18 A2993 RMK A01 T01820178  RH  097%=      5-min Rain = 0
KHA3 250802Z 11009KT 18/18 A2993 RMK A01 T01820178  RH  097%=      5-min Rain = 0
KHA3 250803Z 11009KT 18/18 A2993 RMK A01 T01820178  RH  097%=      5-min Rain = 0
KHA3 250804Z 11011KT 18/18 A2993 RMK A01 T01820178  RH  097%=      5-min Rain = 0
KHA3 250805Z 12010KT 18/18 A2993 RMK A01 T01820179  RH  098%=      5-min Rain = 0
KHA3 250806Z 12009KT 18/18 A2993 RMK A01 T01830179  RH  098%=      5-min Rain = 0
KHA3 250807Z 11009KT 18/18 A2993 RMK A01 T01830179  RH  097%=      5-min Rain = 0
KHA3 250808Z 11010KT 18/18 A2993 RMK A01 T01830179  RH  098%=      5-min Rain = 0
KHA3 250809Z 12010KT 18/18 A2993 RMK A01 T01830179  RH  098%=      5-min Rain = 0
KHA3 250810Z 12011KT 18/18 A2993 RMK A01 T01830179  RH  098%=      5-min Rain = 0
KHA3 250811Z 12011KT 18/18 A2993 RMK A01 T01830180  RH  098%=      5-min Rain = 0
KHA3 250812Z 12010KT 18/18 A2993 RMK A01 T01840180  RH  098%=      5-min Rain = 0
KHA3 250813Z 12009KT 18/18 A2993 RMK A01 T01840180  RH  098%=      5-min Rain = 0
KHA3 250814Z 12010KT 19/18 A2993 RMK A01 T01850181  RH  098%=      5-min Rain = 0
KHA3 250815Z 12010KT 19/18 A2993 RMK A01 T01850181  RH  097%=      5-min Rain = 0
KHA3 250816Z 12011KT 19/18 A2993 RMK A01 T01850181  RH  097%=      5-min Rain = 0
KHA3 250817Z 12009KT 19/18 A2993 RMK A01 T01850181  RH  097%=      5-min Rain = 0
KHA3 250818Z 12009KT 19/18 A2993 RMK A01 T01850181  RH  097%=      5-min Rain = 0
KHA3 250819Z 12010KT 19/18 A2993 RMK A01 T01850181  RH  097%=      5-min Rain = 0
KHA3 250820Z 12009KT 19/18 A2993 RMK A01 T01860181  RH  097%=      5-min Rain = 0
KHA3 250821Z 12011KT 19/18 A2993 RMK A01 T01860182  RH  097%=      5-min Rain = 0
KHA3 250822Z 12010KT 19/18 A2993 RMK A01 T01870183  RH  097%=      5-min Rain = 0
KHA3 250823Z 13009KT 19/18 A2993 RMK A01 T01870183  RH  097%=      5-min Rain = 0
KHA3 250824Z 12009KT 19/18 A2993 RMK A01 T01870182  RH  097%=      5-min Rain = 0
KHA3 250825Z 12008KT 19/18 A2993 RMK A01 T01870182  RH  097%=      5-min Rain = 0
KHA3 250826Z 13009KT 19/18 A2993 RMK A01 T01870182  RH  097%=      5-min Rain = 0
KHA3 250827Z 12007KT 19/18 A2993 RMK A01 T01870182  RH  097%=      5-min Rain = 0
KHA3 250828Z 12007KT 19/18 A2993 RMK A01 T01870182  RH  097%=      5-min Rain = 0
KHA3 250829Z 13008KT 19/18 A2993 RMK A01 T01860181  RH  097%=      5-min Rain = 0
KHA3 250830Z 12007KT 19/18 A2993 RMK A01 T01860181  RH  097%=      5-min Rain = 0
KHA3 250831Z 12007KT 19/18 A2993 RMK A01 T01860181  RH  097%=      5-min Rain = 0
KHA3 250832Z 12008KT 19/18 A2993 RMK A01 T01850181  RH  097%=      5-min Rain = 0
KHA3 250833Z 12009KT 19/18 A2993 RMK A01 T01850181  RH  097%=      5-min Rain = 0
KHA3 250834Z 12008KT 19/18 A2993 RMK A01 T01850181  RH  097%=      5-min Rain = 0
KHA3 250835Z 12009KT 19/18 A2993 RMK A01 T01850181  RH  097%=      5-min Rain = 0
KHA3 250836Z 12009KT 19/18 A2993 RMK A01 T01850181  RH  097%=      5-min Rain = 0
KHA3 250837Z 12009KT 19/18 A2993 RMK A01 T01850181  RH  097%=      5-min Rain = 0
KHA3 250838Z 12009KT 19/18 A2993 RMK A01 T01850181  RH  097%=      5-min Rain = 0
KHA3 250839Z 12009KT 19/18 A2993 RMK A01 T01850181  RH  098%=      5-min Rain = 0
KHA3 250840Z 12009KT 19/18 A2993 RMK A01 T01850181  RH  098%=      5-min Rain = 0
KHA3 250841Z 12009KT 19/18 A2993 RMK A01 T01850181  RH  098%=      5-min Rain = 0
KHA3 250842Z 12008KT 19/18 A2993 RMK A01 T01850181  RH  098%=      5-min Rain = 0
KHA3 250843Z 13007KT 19/18 A2993 RMK A01 T01850181  RH  098%=      5-min Rain = 0
KHA3 250844Z 12008KT 19/18 A2993 RMK A01 T01850181  RH  098%=      5-min Rain = 0
KHA3 250845Z 12009KT 19/18 A2993 RMK A01 T01850182  RH  098%=      5-min Rain = 0
KHA3 250846Z 13009KT 19/18 A2993 RMK A01 T01850181  RH  098%=      5-min Rain = 0
KHA3 250847Z 12008KT 19/18 A2993 RMK A01 T01850181  RH  098%=      5-min Rain = 0
KHA3 250848Z 12009KT 19/18 A2993 RMK A01 T01850181  RH  098%=      5-min Rain = 0
KHA3 250849Z 12008KT 19/18 A2993 RMK A01 T01850182  RH  098%=      5-min Rain = 0
KHA3 250850Z 12008KT 19/18 A2993 RMK A01 T01850182  RH  098%=      5-min Rain = 0
KHA3 250851Z 12008KT 19/18 A2993 RMK A01 T01850182  RH  098%=      5-min Rain = 0
KHA3 250852Z 12009KT 19/18 A2993 RMK A01 T01860182  RH  098%=      5-min Rain = 0
KHA3 250853Z 12007KT 19/18 A2993 RMK A01 T01850182  RH  098%=      5-min Rain = 0
KHA3 250854Z 12007KT 19/18 A2993 RMK A01 T01860182  RH  098%=      5-min Rain = 0
KHA3 250855Z 12007KT 19/18 A2993 RMK A01 T01860182  RH  098%=      5-min Rain = 0
KHA3 250856Z 12008KT 19/18 A2993 RMK A01 T01850182  RH  098%=      5-min Rain = 0
KHA3 250857Z 12008KT 19/18 A2993 RMK A01 T01850182  RH  098%=      5-min Rain = 0
KHA3 250858Z 12007KT 19/18 A2993 RMK A01 T01860182  RH  098%=      5-min Rain = 0
KHA3 250859Z 12007KT 19/18 A2993 RMK A01 T01860182  RH  098%=      5-min Rain = 0
KHA3 250900Z 11008KT 19/18 A2993 RMK A01 T01850182  RH  098%=      5-min Rain = 0
KHA3 250901Z 12007KT 19/18 A2993 RMK A01 T01860182  RH  098%=      5-min Rain = 0
KHA3 250902Z 12007KT 19/18 A2993 RMK A01 T01860182  RH  098%=      5-min Rain = 0
KHA3 250903Z 11007KT 19/18 A2993 RMK A01 T01850182  RH  098%=      5-min Rain = 0
KHA3 250904Z 11006KT 19/18 A2993 RMK A01 T01850182  RH  098%=      5-min Rain = 0
KHA3 250905Z 12007KT 19/18 A2993 RMK A01 T01850182  RH  098%=      5-min Rain = 0
KHA3 250906Z 12008KT 19/18 A2993 RMK A01 T01850182  RH  098%=      5-min Rain = 0
KHA3 250907Z 11007KT 19/18 A2993 RMK A01 T01850182  RH  098%=      5-min Rain = 0
KHA3 250908Z 11007KT 19/18 A2993 RMK A01 T01850181  RH  098%=      5-min Rain = 0
KHA3 250909Z 11008KT 19/18 A2993 RMK A01 T01850181  RH  098%=      5-min Rain = 0
KHA3 250910Z 11008KT 18/18 A2993 RMK A01 T01840181  RH  098%=      5-min Rain = 0
KHA3 250911Z 12007KT 18/18 A2993 RMK A01 T01840181  RH  098%=      5-min Rain = 0
KHA3 250912Z 11006KT 18/18 A2993 RMK A01 T01840181  RH  098%=      5-min Rain = 0
KHA3 250913Z 11006KT 18/18 A2993 RMK A01 T01840181  RH  098%=      5-min Rain = 0
KHA3 250914Z 12006KT 18/18 A2993 RMK A01 T01840180  RH  098%=      5-min Rain = 0
KHA3 250915Z 12006KT 18/18 A2993 RMK A01 T01840181  RH  098%=      5-min Rain = 0
KHA3 250916Z 12007KT 18/18 A2993 RMK A01 T01830180  RH  098%=      5-min Rain = 0
KHA3 250917Z 12007KT 18/18 A2993 RMK A01 T01830181  RH  098%=      5-min Rain = 0
KHA3 250918Z 12007KT 18/18 A2993 RMK A01 T01830181  RH  098%=      5-min Rain = 0
KHA3 250919Z 12007KT 18/18 A2993 RMK A01 T01830181  RH  098%=      5-min Rain = 0
KHA3 250920Z 12006KT 18/18 A2993 RMK A01 T01830181  RH  098%=      5-min Rain = 0
KHA3 250921Z 12006KT 18/18 A2993 RMK A01 T01830181  RH  098%=      5-min Rain = 0
KHA3 250922Z 13006KT 18/18 A2993 RMK A01 T01830181  RH  098%=      5-min Rain = 0
KHA3 250923Z 12006KT 18/18 A2993 RMK A01 T01840181  RH  099%=      5-min Rain = 0
KHA3 250924Z 12007KT 18/18 A2993 RMK A01 T01840182  RH  099%=      5-min Rain = 0
KHA3 250925Z 13007KT 18/18 A2993 RMK A01 T01840181  RH  099%=      5-min Rain = 0
KHA3 250926Z 13007KT 18/18 A2993 RMK A01 T01840182  RH  099%=      5-min Rain = 0
KHA3 250927Z 13007KT 18/18 A2993 RMK A01 T01840182  RH  099%=      5-min Rain = 0
KHA3 250928Z 13006KT 18/18 A2993 RMK A01 T01840182  RH  099%=      5-min Rain = 0
KHA3 250929Z 13007KT 18/18 A2993 RMK A01 T01840182  RH  099%=      5-min Rain = 0
KHA3 250930Z 13007KT 19/18 A2993 RMK A01 T01850182  RH  099%=      5-min Rain = 0
KHA3 250931Z 13006KT 19/18 A2993 RMK A01 T01850183  RH  099%=      5-min Rain = 0
KHA3 250932Z 12007KT 19/18 A2993 RMK A01 T01850183  RH  099%=      5-min Rain = 0
KHA3 250933Z 13007KT 19/18 A2993 RMK A01 T01850183  RH  099%=      5-min Rain = 0
KHA3 250934Z 12007KT 19/18 A2993 RMK A01 T01850183  RH  099%=      5-min Rain = 0
KHA3 250935Z 12008KT 19/18 A2993 RMK A01 T01850183  RH  099%=      5-min Rain = 0
KHA3 250936Z 13008KT 19/18 A2993 RMK A01 T01860183  RH  099%=      5-min Rain = 0
KHA3 250937Z 12007KT 19/18 A2993 RMK A01 T01860183  RH  099%=      5-min Rain = 0
KHA3 250938Z 12006KT 19/18 A2993 RMK A01 T01850183  RH  099%=      5-min Rain = 0
KHA3 250939Z 12008KT 19/18 A2993 RMK A01 T01850183  RH  099%=      5-min Rain = 0
KHA3 250940Z 12007KT 19/18 A2993 RMK A01 T01860183  RH  099%=      5-min Rain = 0
KHA3 250941Z 12008KT 19/18 A2993 RMK A01 T01860183  RH  099%=      5-min Rain = 0
KHA3 250942Z 12008KT 19/18 A2993 RMK A01 T01860184  RH  099%=      5-min Rain = 0
KHA3 250943Z 12007KT 19/18 A2993 RMK A01 T01860184  RH  099%=      5-min Rain = 0
KHA3 250944Z 12008KT 19/18 A2993 RMK A01 T01860184  RH  099%=      5-min Rain = 0
KHA3 250945Z 12007KT 19/18 A2993 RMK A01 T01860184  RH  099%=      5-min Rain = 0
KHA3 250946Z 12008KT 19/18 A2993 RMK A01 T01860184  RH  099%=      5-min Rain = 0
KHA3 250947Z 12008KT 19/18 A2993 RMK A01 T01870184  RH  099%=      5-min Rain = 0
KHA3 250948Z 12008KT 19/18 A2993 RMK A01 T01860184  RH  099%=      5-min Rain = 0
KHA3 250949Z 12008KT 19/18 A2993 RMK A01 T01860184  RH  099%=      5-min Rain = 0
KHA3 250950Z 12008KT 19/19 A2993 RMK A01 T01870185  RH  099%=      5-min Rain = 0
KHA3 250951Z 12008KT 19/19 A2993 RMK A01 T01870185  RH  099%=      5-min Rain = 0
KHA3 250952Z 12008KT 19/19 A2993 RMK A01 T01870185  RH  099%=      5-min Rain = 0
KHA3 250953Z 12008KT 19/19 A2993 RMK A01 T01870185  RH  099%=      5-min Rain = 0
KHA3 250954Z 12008KT 19/19 A2993 RMK A01 T01870185  RH  099%=      5-min Rain = 0
KHA3 250955Z 12007KT 19/19 A2993 RMK A01 T01880186  RH  099%=      5-min Rain = 0
KHA3 250956Z 12007KT 19/19 A2993 RMK A01 T01880186  RH  099%=      5-min Rain = 0
KHA3 250957Z 12007KT 19/19 A2993 RMK A01 T01880186  RH  099%=      5-min Rain = 0
KHA3 250958Z 12008KT 19/19 A2993 RMK A01 T01880186  RH  099%=      5-min Rain = 0
KHA3 250959Z 12008KT 19/19 A2993 RMK A01 T01880185  RH  099%=      5-min Rain = 0
KHA3 251000Z 12008KT 19/19 A2994 RMK A01 T01880185  RH  099%=      5-min Rain = 0
KHA3 251001Z 11008KT 19/19 A2994 RMK A01 T01880185  RH  099%=      5-min Rain = 0
KHA3 251002Z 12008KT 19/19 A2994 RMK A01 T01880185  RH  099%=      5-min Rain = 0
KHA3 251003Z 12007KT 19/19 A2994 RMK A01 T01880185  RH  099%=      5-min Rain = 0
KHA3 251004Z 12007KT 19/19 A2994 RMK A01 T01880185  RH  098%=      5-min Rain = 0
KHA3 251005Z 11008KT 19/19 A2994 RMK A01 T01880185  RH  098%=      5-min Rain = 0
KHA3 251006Z 12007KT 19/19 A2994 RMK A01 T01880186  RH  099%=      5-min Rain = 0
KHA3 251007Z 11007KT 19/19 A2994 RMK A01 T01880186  RH  098%=      5-min Rain = 0
KHA3 251008Z 12007KT 19/19 A2994 RMK A01 T01880185  RH  098%=      5-min Rain = 0
KHA3 251009Z 12007KT 19/19 A2994 RMK A01 T01880186  RH  099%=      5-min Rain = 0
KHA3 251010Z 12007KT 19/19 A2994 RMK A01 T01880186  RH  099%=      5-min Rain = 0
KHA3 251011Z 12007KT 19/19 A2994 RMK A01 T01880186  RH  099%=      5-min Rain = 0
KHA3 251012Z 12007KT 19/19 A2994 RMK A01 T01880186  RH  099%=      5-min Rain = 0
KHA3 251013Z 12006KT 19/19 A2994 RMK A01 T01880185  RH  099%=      5-min Rain = 0
KHA3 251014Z 11006KT 19/19 A2994 RMK A01 T01880186  RH  099%=      5-min Rain = 0
KHA3 251015Z 12007KT 19/19 A2994 RMK A01 T01880185  RH  099%=      5-min Rain = 0
KHA3 251016Z 11007KT 19/19 A2993 RMK A01 T01880186  RH  099%=      5-min Rain = 0
KHA3 251017Z 11007KT 19/19 A2993 RMK A01 T01880186  RH  099%=      5-min Rain = 0
KHA3 251018Z 12008KT 19/19 A2993 RMK A01 T01880185  RH  099%=      5-min Rain = 0
KHA3 251019Z 12008KT 19/19 A2993 RMK A01 T01880186  RH  099%=      5-min Rain = 0
KHA3 251020Z 12007KT 19/19 A2993 RMK A01 T01880186  RH  099%=      5-min Rain = 0
KHA3 251021Z 12008KT 19/19 A2993 RMK A01 T01880186  RH  099%=      5-min Rain = 0
KHA3 251022Z 12007KT 19/19 A2993 RMK A01 T01880186  RH  099%=      5-min Rain = 0
KHA3 251023Z 11008KT 19/19 A2993 RMK A01 T01880186  RH  099%=      5-min Rain = 0
KHA3 251024Z 11008KT 19/19 A2993 RMK A01 T01880186  RH  099%=      5-min Rain = 0
KHA3 251025Z 11009KT 19/19 A2993 RMK A01 T01880186  RH  099%=      5-min Rain = 0
KHA3 251026Z 11008KT 19/19 A2993 RMK A01 T01880186  RH  099%=      5-min Rain = 0
KHA3 251027Z 11008KT 19/19 A2993 RMK A01 T01880186  RH  099%=      5-min Rain = 0
KHA3 251028Z 11008KT 19/19 A2993 RMK A01 T01880186  RH  099%=      5-min Rain = 0
KHA3 251029Z 11009KT 19/19 A2993 RMK A01 T01880186  RH  099%=      5-min Rain = 0
KHA3 251030Z 11009KT 19/19 A2993 RMK A01 T01880186  RH  099%=      5-min Rain = 0
KHA3 251031Z 11009KT 19/19 A2993 RMK A01 T01880186  RH  099%=      5-min Rain = 0
KHA3 251032Z 11008KT 19/19 A2993 RMK A01 T01880186  RH  099%=      5-min Rain = 0
KHA3 251033Z 12008KT 19/19 A2993 RMK A01 T01880186  RH  099%=      5-min Rain = 0
KHA3 251034Z 11008KT 19/19 A2993 RMK A01 T01880186  RH  099%=      5-min Rain = 0
KHA3 251035Z 12009KT 19/19 A2993 RMK A01 T01880186  RH  099%=      5-min Rain = 0
KHA3 251036Z 12008KT 19/19 A2993 RMK A01 T01880186  RH  099%=      5-min Rain = 0
KHA3 251037Z 12008KT 19/19 A2993 RMK A01 T01880186  RH  099%=      5-min Rain = 0
KHA3 251038Z 12008KT 19/19 A2993 RMK A01 T01880186  RH  099%=      5-min Rain = 0
KHA3 251039Z 11008KT 19/19 A2993 RMK A01 T01880186  RH  099%=      5-min Rain = 0
KHA3 251040Z 11008KT 19/19 A2993 RMK A01 T01880186  RH  099%=      5-min Rain = 0
KHA3 251041Z 12008KT 19/19 A2994 RMK A01 T01880186  RH  099%=      5-min Rain = 0
KHA3 251042Z 12008KT 19/19 A2994 RMK A01 T01880186  RH  099%=      5-min Rain = 0
KHA3 251043Z 11007KT 19/19 A2994 RMK A01 T01880186  RH  099%=      5-min Rain = 0
KHA3 251044Z 11007KT 19/19 A2994 RMK A01 T01880186  RH  099%=      5-min Rain = 0
KHA3 251045Z 12007KT 19/19 A2994 RMK A01 T01880186  RH  099%=      5-min Rain = 0
KHA3 251046Z 11007KT 19/19 A2994 RMK A01 T01880186  RH  099%=      5-min Rain = 0
KHA3 251047Z 12007KT 19/19 A2994 RMK A01 T01870185  RH  099%=      5-min Rain = 0
KHA3 251048Z 11006KT 19/19 A2994 RMK A01 T01870185  RH  099%=      5-min Rain = 0
KHA3 251049Z 11006KT 19/19 A2994 RMK A01 T01870185  RH  099%=      5-min Rain = 0
KHA3 251050Z 11007KT 19/19 A2994 RMK A01 T01870185  RH  099%=      5-min Rain = 0
KHA3 251051Z 10006KT 19/19 A2994 RMK A01 T01870186  RH  099%=      5-min Rain = 0
KHA3 251052Z 10006KT 19/19 A2994 RMK A01 T01870185  RH  099%=      5-min Rain = 0
KHA3 251053Z 11007KT 19/19 A2994 RMK A01 T01870185  RH  099%=      5-min Rain = 0
KHA3 251054Z 11006KT 19/19 A2994 RMK A01 T01870185  RH  099%=      5-min Rain = 0
KHA3 251055Z 11007KT 19/19 A2994 RMK A01 T01870185  RH  099%=      5-min Rain = 0
KHA3 251056Z 11006KT 19/19 A2994 RMK A01 T01870185  RH  099%=      5-min Rain = 0
KHA3 251057Z 10007KT 19/19 A2994 RMK A01 T01870185  RH  099%=      5-min Rain = 0
KHA3 251058Z 11007KT 19/19 A2994 RMK A01 T01860185  RH  099%=      5-min Rain = 0
KHA3 251059Z 11007KT 19/19 A2994 RMK A01 T01860185  RH  099%=      5-min Rain = 0
KHA3 251100Z 11007KT 19/19 A2994 RMK A01 T01860185  RH  099%=      5-min Rain = 0
KHA3 251101Z 11007KT 19/19 A2994 RMK A01 T01860185  RH  099%=      5-min Rain = 0
KHA3 251102Z 11007KT 19/19 A2994 RMK A01 T01860185  RH  099%=      5-min Rain = 0
KHA3 251103Z 11007KT 19/19 A2994 RMK A01 T01870185  RH  099%=      5-min Rain = 0
KHA3 251104Z 11007KT 19/19 A2994 RMK A01 T01860185  RH  099%=      5-min Rain = 0
KHA3 251105Z 11007KT 19/19 A2994 RMK A01 T01860185  RH  099%=      5-min Rain = 0
KHA3 251106Z 11007KT 19/19 A2994 RMK A01 T01860185  RH  099%=      5-min Rain = 0
KHA3 251107Z 11007KT 19/18 A2994 RMK A01 T01860184  RH  099%=      5-min Rain = 0
KHA3 251108Z 11007KT 19/18 A2994 RMK A01 T01860184  RH  099%=      5-min Rain = 0
KHA3 251109Z 12007KT 19/18 A2994 RMK A01 T01860184  RH  099%=      5-min Rain = 0
KHA3 251110Z 12007KT 19/18 A2994 RMK A01 T01850184  RH  099%=      5-min Rain = 0
KHA3 251111Z 12007KT 19/18 A2994 RMK A01 T01860184  RH  099%=      5-min Rain = 0
KHA3 251112Z 12007KT 19/18 A2994 RMK A01 T01860184  RH  099%=      5-min Rain = 0
KHA3 251113Z 12006KT 19/18 A2994 RMK A01 T01850184  RH  099%=      5-min Rain = 0
KHA3 251114Z 12007KT 19/18 A2994 RMK A01 T01860184  RH  099%=      5-min Rain = 0
KHA3 251115Z 12006KT 19/19 A2994 RMK A01 T01860185  RH  099%=      5-min Rain = 0
KHA3 251116Z 12006KT 19/19 A2994 RMK A01 T01860185  RH  099%=      5-min Rain = 0
KHA3 251117Z 12006KT 19/19 A2994 RMK A01 T01860185  RH  099%=      5-min Rain = 0
KHA3 251118Z 13005KT 19/19 A2994 RMK A01 T01860185  RH  099%=      5-min Rain = 0
KHA3 251119Z 13006KT 19/19 A2994 RMK A01 T01860185  RH  099%=      5-min Rain = 0
KHA3 251120Z 13007KT 19/19 A2994 RMK A01 T01860185  RH  099%=      5-min Rain = 0
KHA3 251121Z 13007KT 19/19 A2994 RMK A01 T01860185  RH  099%=      5-min Rain = 0
KHA3 251122Z 12007KT 19/19 A2994 RMK A01 T01860185  RH  099%=      5-min Rain = 0
KHA3 251123Z 12006KT 19/19 A2994 RMK A01 T01860185  RH  099%=      5-min Rain = 0
KHA3 251124Z 12007KT 19/19 A2994 RMK A01 T01860185  RH  099%=      5-min Rain = 0
KHA3 251125Z 12007KT 19/19 A2994 RMK A01 T01870186  RH  099%=      5-min Rain = 0
KHA3 251126Z 12007KT 19/19 A2994 RMK A01 T01870186  RH  099%=      5-min Rain = 0
KHA3 251127Z 12007KT 19/19 A2994 RMK A01 T01870186  RH  099%=      5-min Rain = 0
KHA3 251128Z 13006KT 19/19 A2994 RMK A01 T01870186  RH  099%=      5-min Rain = 0
KHA3 251129Z 13007KT 19/19 A2995 RMK A01 T01880186  RH  099%=      5-min Rain = 0
KHA3 251130Z 12006KT 19/19 A2995 RMK A01 T01880187  RH  099%=      5-min Rain = 0
KHA3 251131Z 12006KT 19/19 A2995 RMK A01 T01880187  RH  099%=      5-min Rain = 0
KHA3 251132Z 13006KT 19/19 A2995 RMK A01 T01880187  RH  099%=      5-min Rain = 0
KHA3 251133Z 12007KT 19/19 A2995 RMK A01 T01880186  RH  099%=      5-min Rain = 0
KHA3 251134Z 13007KT 19/19 A2995 RMK A01 T01880187  RH  099%=      5-min Rain = 0
KHA3 251135Z 13007KT 19/19 A2995 RMK A01 T01880187  RH  099%=      5-min Rain = 0
KHA3 251136Z 12007KT 19/19 A2995 RMK A01 T01880187  RH  099%=      5-min Rain = 0
KHA3 251137Z 13007KT 19/19 A2995 RMK A01 T01880187  RH  099%=      5-min Rain = 0
KHA3 251138Z 13006KT 19/19 A2995 RMK A01 T01880187  RH  099%=      5-min Rain = 0
KHA3 251139Z 13007KT 19/19 A2995 RMK A01 T01890187  RH  099%=      5-min Rain = 0
KHA3 251140Z 12006KT 19/19 A2995 RMK A01 T01890188  RH  099%=      5-min Rain = 0
KHA3 251141Z 13006KT 19/19 A2995 RMK A01 T01890188  RH  099%=      5-min Rain = 0
KHA3 251142Z 13007KT 19/19 A2995 RMK A01 T01890188  RH  099%=      5-min Rain = 0
KHA3 251143Z 13006KT 19/19 A2995 RMK A01 T01890188  RH  099%=      5-min Rain = 0
KHA3 251144Z 13006KT 19/19 A2995 RMK A01 T01900189  RH  099%=      5-min Rain = 0
KHA3 251145Z 13007KT 19/19 A2995 RMK A01 T01900188  RH  099%=      5-min Rain = 0
KHA3 251146Z 12007KT 19/19 A2995 RMK A01 T01900188  RH  099%=      5-min Rain = 0
KHA3 251147Z 13006KT 19/19 A2995 RMK A01 T01900189  RH  099%=      5-min Rain = 0
KHA3 251148Z 13007KT 19/19 A2995 RMK A01 T01900189  RH  099%=      5-min Rain = 0
KHA3 251149Z 13007KT 19/19 A2995 RMK A01 T01910189  RH  099%=      5-min Rain = 0
KHA3 251150Z 13008KT 19/19 A2996 RMK A01 T01910190  RH  099%=      5-min Rain = 0
KHA3 251151Z 13006KT 19/19 A2996 RMK A01 T01920190  RH  099%=      5-min Rain = 0
KHA3 251152Z 13008KT 19/19 A2996 RMK A01 T01920190  RH  099%=      5-min Rain = 0
KHA3 251153Z 13007KT 19/19 A2996 RMK A01 T01920191  RH  099%=      5-min Rain = 0
KHA3 251154Z 13007KT 19/19 A2996 RMK A01 T01930191  RH  099%=      5-min Rain = 0
KHA3 251155Z 12006KT 19/19 A2996 RMK A01 T01930191  RH  099%=      5-min Rain = 0
KHA3 251156Z 13006KT 19/19 A2996 RMK A01 T01930191  RH  099%=      5-min Rain = 0
KHA3 251157Z 13006KT 19/19 A2996 RMK A01 T01930191  RH  099%=      5-min Rain = 0
KHA3 251158Z 13006KT 19/19 A2996 RMK A01 T01930191  RH  099%=      5-min Rain = 0
KHA3 251159Z 13006KT 19/19 A2996 RMK A01 T01940192  RH  099%=      5-min Rain = 0
KHA3 251200Z 13006KT 19/19 A2996 RMK A01 T01940192  RH  099%=      5-min Rain = 0
KHA3 251201Z 13006KT 19/19 A2996 RMK A01 T01940192  RH  099%=      5-min Rain = 0
KHA3 251202Z 13006KT 19/19 A2996 RMK A01 T01940192  RH  098%=      5-min Rain = 0
KHA3 251203Z 13006KT 19/19 A2996 RMK A01 T01940192  RH  098%=      5-min Rain = 0
KHA3 251204Z 13006KT 19/19 A2996 RMK A01 T01940192  RH  098%=      5-min Rain = 0
KHA3 251205Z 12006KT 19/19 A2996 RMK A01 T01940191  RH  098%=      5-min Rain = 0
KHA3 251206Z 13006KT 19/19 A2996 RMK A01 T01940191  RH  098%=      5-min Rain = 0
KHA3 251207Z 12005KT 19/19 A2996 RMK A01 T01940191  RH  098%=      5-min Rain = 0
KHA3 251208Z 12006KT 19/19 A2996 RMK A01 T01940191  RH  098%=      5-min Rain = 0
KHA3 251209Z 12006KT 19/19 A2996 RMK A01 T01940191  RH  098%=      5-min Rain = 0
KHA3 251210Z 13006KT 20/19 A2996 RMK A01 T01950191  RH  098%=      5-min Rain = 0
KHA3 251211Z 12006KT 20/19 A2996 RMK A01 T01950191  RH  098%=      5-min Rain = 0
KHA3 251212Z 12006KT 20/19 A2996 RMK A01 T01950191  RH  098%=      5-min Rain = 0
KHA3 251213Z 12006KT 20/19 A2996 RMK A01 T01950192  RH  098%=      5-min Rain = 0
KHA3 251214Z 12005KT 20/19 A2996 RMK A01 T01960192  RH  098%=      5-min Rain = 0
KHA3 251215Z 12006KT 20/19 A2996 RMK A01 T01960192  RH  098%=      5-min Rain = 0
KHA3 251216Z 12006KT 20/19 A2996 RMK A01 T01960192  RH  098%=      5-min Rain = 0
KHA3 251217Z 12006KT 20/19 A2996 RMK A01 T01960192  RH  098%=      5-min Rain = 0
KHA3 251218Z 12005KT 20/19 A2996 RMK A01 T01950192  RH  098%=      5-min Rain = 0
KHA3 251219Z 12006KT 20/19 A2996 RMK A01 T01960192  RH  098%=      5-min Rain = 0
KHA3 251220Z 12007KT 20/19 A2996 RMK A01 T01960192  RH  098%=      5-min Rain = 0
KHA3 251221Z 12006KT 20/19 A2996 RMK A01 T01960192  RH  098%=      5-min Rain = 0
KHA3 251222Z 12007KT 20/19 A2996 RMK A01 T01960192  RH  098%=      5-min Rain = 0
KHA3 251223Z 12007KT 20/19 A2996 RMK A01 T01960192  RH  098%=      5-min Rain = 0
KHA3 251224Z 12006KT 20/19 A2996 RMK A01 T01950192  RH  098%=      5-min Rain = 0
KHA3 251225Z 12006KT 20/19 A2997 RMK A01 T01960192  RH  098%=      5-min Rain = 0
KHA3 251226Z 12005KT 20/19 A2997 RMK A01 T01960192  RH  098%=      5-min Rain = 0
KHA3 251227Z 12006KT 20/19 A2997 RMK A01 T01960192  RH  098%=      5-min Rain = 0.01
KHA3 251228Z 12006KT 20/19 A2997 RMK A01 T01970193  RH  098%=      5-min Rain = 0
KHA3 251229Z 12005KT 20/19 A2997 RMK A01 T01970193  RH  098%=      5-min Rain = 0
KHA3 251230Z 12006KT 20/19 A2997 RMK A01 T01970193  RH  098%=      5-min Rain = 0
KHA3 251231Z 12006KT 20/19 A2997 RMK A01 T01970193  RH  097%=      5-min Rain = 0
KHA3 251232Z 12006KT 20/19 A2997 RMK A01 T01970193  RH  097%=      5-min Rain = 0
KHA3 251233Z 13006KT 20/19 A2997 RMK A01 T01980194  RH  097%=      5-min Rain = 0
KHA3 251234Z 13005KT 20/19 A2997 RMK A01 T01980194  RH  097%=      5-min Rain = 0
KHA3 251235Z 13006KT 20/20 A2997 RMK A01 T01990195  RH  097%=      5-min Rain = 0
KHA3 251236Z 12006KT 20/19 A2997 RMK A01 T01980194  RH  097%=      5-min Rain = 0
KHA3 251237Z 12005KT 20/19 A2997 RMK A01 T01980194  RH  097%=      5-min Rain = 0
KHA3 251238Z 13006KT 20/20 A2997 RMK A01 T01990195  RH  097%=      5-min Rain = 0
KHA3 251239Z 13006KT 20/20 A2997 RMK A01 T01990195  RH  097%=      5-min Rain = 0
KHA3 251240Z 12006KT 20/20 A2997 RMK A01 T01990195  RH  097%=      5-min Rain = 0
KHA3 251241Z 12006KT 20/20 A2997 RMK A01 T02000196  RH  097%=      5-min Rain = 0
KHA3 251242Z 13006KT 20/20 A2997 RMK A01 T02000196  RH  097%=      5-min Rain = 0
KHA3 251243Z 13006KT 20/20 A2997 RMK A01 T02010196  RH  097%=      5-min Rain = 0
KHA3 251244Z 12005KT 20/20 A2997 RMK A01 T02020197  RH  097%=      5-min Rain = 0
KHA3 251245Z 13006KT 20/20 A2997 RMK A01 T02020197  RH  097%=      5-min Rain = 0
KHA3 251246Z 13006KT 20/20 A2997 RMK A01 T02020197  RH  097%=      5-min Rain = 0
KHA3 251247Z 13007KT 20/20 A2997 RMK A01 T02030198  RH  097%=      5-min Rain = 0
KHA3 251248Z 13007KT 20/20 A2997 RMK A01 T02030197  RH  096%=      5-min Rain = 0
KHA3 251249Z 13008KT 20/20 A2997 RMK A01 T02040198  RH  096%=      5-min Rain = 0
KHA3 251250Z 13007KT 20/20 A2997 RMK A01 T02040197  RH  096%=      5-min Rain = 0
KHA3 251251Z 13007KT 20/20 A2997 RMK A01 T02040198  RH  096%=      5-min Rain = 0
KHA3 251252Z 13007KT 21/20 A2997 RMK A01 T02050199  RH  096%=      5-min Rain = 0
KHA3 251253Z 14007KT 21/20 A2997 RMK A01 T02050198  RH  096%=      5-min Rain = 0
KHA3 251254Z 13007KT 21/20 A2998 RMK A01 T02050198  RH  096%=      5-min Rain = 0
KHA3 251255Z 14009KT 21/20 A2998 RMK A01 T02050197  RH  095%=      5-min Rain = 0
KHA3 251256Z 14008KT 21/20 A2998 RMK A01 T02060198  RH  095%=      5-min Rain = 0
KHA3 251257Z 14007KT 21/20 A2998 RMK A01 T02060198  RH  095%=      5-min Rain = 0
KHA3 251258Z 14008KT 21/20 A2998 RMK A01 T02060197  RH  095%=      5-min Rain = 0
KHA3 251259Z 14008KT 21/20 A2998 RMK A01 T02060198  RH  095%=      5-min Rain = 0
KHA3 251300Z 14009KT 21/20 A2998 RMK A01 T02060198  RH  095%=      5-min Rain = 0
KHA3 251301Z 14007KT 21/20 A2998 RMK A01 T02060198  RH  095%=      5-min Rain = 0
KHA3 251302Z 14008KT 21/20 A2998 RMK A01 T02060198  RH  095%=      5-min Rain = 0
KHA3 251303Z 14006KT 21/20 A2998 RMK A01 T02060198  RH  095%=      5-min Rain = 0
KHA3 251304Z 14007KT 21/20 A2998 RMK A01 T02060198  RH  095%=      5-min Rain = 0
KHA3 251305Z 14007KT 21/20 A2998 RMK A01 T02060198  RH  095%=      5-min Rain = 0
KHA3 251306Z 14007KT 21/20 A2998 RMK A01 T02060198  RH  095%=      5-min Rain = 0
KHA3 251307Z 14008KT 21/20 A2998 RMK A01 T02060199  RH  095%=      5-min Rain = 0
KHA3 251308Z 14009KT 21/20 A2998 RMK A01 T02070199  RH  095%=      5-min Rain = 0
KHA3 251309Z 14009KT 21/20 A2998 RMK A01 T02070199  RH  095%=      5-min Rain = 0
KHA3 251310Z 15010KT 21/20 A2998 RMK A01 T02080199  RH  095%=      5-min Rain = 0
KHA3 251311Z 14009KT 21/20 A2998 RMK A01 T02080199  RH  095%=      5-min Rain = 0
KHA3 251312Z 14008KT 21/20 A2998 RMK A01 T02080199  RH  094%=      5-min Rain = 0
KHA3 251313Z 14009KT 21/20 A2998 RMK A01 T02090200  RH  094%=      5-min Rain = 0
KHA3 251314Z 14009KT 21/20 A2998 RMK A01 T02100200  RH  094%=      5-min Rain = 0
KHA3 251315Z 14009KT 21/20 A2998 RMK A01 T02100201  RH  094%=      5-min Rain = 0
KHA3 251316Z 14010KT 21/20 A2998 RMK A01 T02110201  RH  094%=      5-min Rain = 0
KHA3 251317Z 15010KT 21/20 A2998 RMK A01 T02120201  RH  094%=      5-min Rain = 0
KHA3 251318Z 14009KT 21/20 A2998 RMK A01 T02120201  RH  093%=      5-min Rain = 0
KHA3 251319Z 15009KT 21/20 A2998 RMK A01 T02130202  RH  094%=      5-min Rain = 0
KHA3 251320Z 15008KT 21/20 A2998 RMK A01 T02130202  RH  093%=      5-min Rain = 0
KHA3 251321Z 15008KT 21/20 A2998 RMK A01 T02140202  RH  093%=      5-min Rain = 0
KHA3 251322Z 15007KT 21/20 A2998 RMK A01 T02140203  RH  093%=      5-min Rain = 0
KHA3 251323Z 15007KT 21/20 A2998 RMK A01 T02140204  RH  094%=      5-min Rain = 0
KHA3 251324Z 15009KT 21/20 A2998 RMK A01 T02140204  RH  094%=      5-min Rain = 0
KHA3 251325Z 15010KT 22/20 A2998 RMK A01 T02150203  RH  093%=      5-min Rain = 0
KHA3 251326Z 15008KT 22/20 A2998 RMK A01 T02150203  RH  093%=      5-min Rain = 0
KHA3 251327Z 14009KT 22/20 A2998 RMK A01 T02160204  RH  093%=      5-min Rain = 0
KHA3 251328Z 14008KT 22/20 A2998 RMK A01 T02160204  RH  093%=      5-min Rain = 0
KHA3 251329Z 15009KT 22/20 A2998 RMK A01 T02160204  RH  093%=      5-min Rain = 0
KHA3 251330Z 15009KT 22/20 A2998 RMK A01 T02160204  RH  092%=      5-min Rain = 0
KHA3 251331Z 15009KT 22/20 A2999 RMK A01 T02170204  RH  092%=      5-min Rain = 0
KHA3 251332Z 15009KT 22/20 A2999 RMK A01 T02170204  RH  092%=      5-min Rain = 0
KHA3 251333Z 14008KT 22/21 A2999 RMK A01 T02170205  RH  092%=      5-min Rain = 0
KHA3 251334Z 15007KT 22/20 A2999 RMK A01 T02180204  RH  092%=      5-min Rain = 0
KHA3 251335Z 15009KT 22/20 A2999 RMK A01 T02180204  RH  092%=      5-min Rain = 0
KHA3 251336Z 15008KT 22/20 A2999 RMK A01 T02180204  RH  092%=      5-min Rain = 0
KHA3 251337Z 15008KT 22/20 A2999 RMK A01 T02180204  RH  092%=      5-min Rain = 0
KHA3 251338Z 15007KT 22/21 A2999 RMK A01 T02180205  RH  092%=      5-min Rain = 0
KHA3 251339Z 16008KT 22/21 A2999 RMK A01 T02190205  RH  092%=      5-min Rain = 0
KHA3 251340Z 15008KT 22/21 A2999 RMK A01 T02200206  RH  092%=      5-min Rain = 0
KHA3 251341Z 15010KT 22/21 A2999 RMK A01 T02200206  RH  092%=      5-min Rain = 0
KHA3 251342Z 16009G14KT 22/21 A2999 RMK A01 T02210206  RH  091%=      5-min Rain = 0
KHA3 251343Z 15011KT 22/20 A2999 RMK A01 T02210204  RH  090%=      5-min Rain = 0
KHA3 251344Z 16011KT 22/20 A2999 RMK A01 T02210204  RH  090%=      5-min Rain = 0
KHA3 251345Z 15011KT 22/20 A2999 RMK A01 T02210204  RH  090%=      5-min Rain = 0
KHA3 251346Z 15012KT 22/20 A2999 RMK A01 T02220204  RH  090%=      5-min Rain = 0
KHA3 251347Z 15010KT 22/20 A2999 RMK A01 T02210204  RH  090%=      5-min Rain = 0
KHA3 251348Z 16010KT 22/20 A2999 RMK A01 T02220204  RH  090%=      5-min Rain = 0
KHA3 251349Z 15009KT 22/20 A2999 RMK A01 T02220204  RH  090%=      5-min Rain = 0
KHA3 251350Z 15009KT 22/21 A2999 RMK A01 T02220206  RH  090%=      5-min Rain = 0
KHA3 251351Z 15010KT 22/21 A2999 RMK A01 T02230206  RH  090%=      5-min Rain = 0
KHA3 251352Z 15009KT 22/21 A2999 RMK A01 T02230206  RH  090%=      5-min Rain = 0
KHA3 251353Z 16010KT 22/21 A2999 RMK A01 T02230205  RH  090%=      5-min Rain = 0
KHA3 251354Z 16011KT 22/21 A2999 RMK A01 T02240205  RH  089%=      5-min Rain = 0
KHA3 251355Z 16009KT 22/21 A2999 RMK A01 T02240205  RH  089%=      5-min Rain = 0
KHA3 251356Z 16012KT 23/21 A2999 RMK A01 T02260207  RH  089%=      5-min Rain = 0
KHA3 251357Z 16013KT 23/21 A2999 RMK A01 T02260206  RH  088%=      5-min Rain = 0
KHA3 251358Z 16011KT 23/21 A2999 RMK A01 T02260205  RH  088%=      5-min Rain = 0
KHA3 251359Z 16012KT 23/21 A2999 RMK A01 T02270206  RH  088%=      5-min Rain = 0
KHA3 251400Z 15009KT 23/21 A2999 RMK A01 T02270206  RH  088%=      5-min Rain = 0
KHA3 251401Z 16011KT 23/21 A2999 RMK A01 T02280208  RH  088%=      5-min Rain = 0
KHA3 251402Z 16013KT 23/21 A2999 RMK A01 T02280206  RH  088%=      5-min Rain = 0
KHA3 251403Z 16012KT 23/21 A2999 RMK A01 T02280206  RH  087%=      5-min Rain = 0
KHA3 251404Z 16010KT 23/21 A2999 RMK A01 T02280207  RH  088%=      5-min Rain = 0
KHA3 251405Z 15010KT 23/21 A2999 RMK A01 T02290207  RH  087%=      5-min Rain = 0
KHA3 251406Z 16011KT 23/21 A2999 RMK A01 T02300207  RH  087%=      5-min Rain = 0
KHA3 251407Z 16013KT 23/21 A2999 RMK A01 T02300206  RH  086%=      5-min Rain = 0
KHA3 251408Z 16012KT 23/21 A2999 RMK A01 T02310206  RH  086%=      5-min Rain = 0
KHA3 251409Z 16010KT 23/21 A2999 RMK A01 T02310207  RH  086%=      5-min Rain = 0
KHA3 251410Z 16013KT 23/21 A2999 RMK A01 T02320207  RH  086%=      5-min Rain = 0
KHA3 251411Z 16014KT 23/21 A2999 RMK A01 T02310206  RH  085%=      5-min Rain = 0
KHA3 251412Z 16010KT 23/21 A2999 RMK A01 T02310207  RH  086%=      5-min Rain = 0
KHA3 251413Z 16011KT 23/21 A2999 RMK A01 T02310208  RH  086%=      5-min Rain = 0
KHA3 251414Z 16009KT 23/21 A2999 RMK A01 T02320209  RH  086%=      5-min Rain = 0
KHA3 251415Z 16011KT 23/21 A2999 RMK A01 T02330209  RH  086%=      5-min Rain = 0
KHA3 251416Z 15010KT 23/21 A2999 RMK A01 T02330208  RH  085%=      5-min Rain = 0
KHA3 251417Z 16013KT 23/21 A2999 RMK A01 T02340208  RH  085%=      5-min Rain = 0
KHA3 251418Z 15011KT 24/21 A2999 RMK A01 T02350208  RH  085%=      5-min Rain = 0
KHA3 251419Z 16012KT 24/21 A2999 RMK A01 T02350207  RH  085%=      5-min Rain = 0
KHA3 251420Z 15014KT 23/21 A2999 RMK A01 T02340206  RH  084%=      5-min Rain = 0
KHA3 251421Z 16013KT 23/21 A2999 RMK A01 T02340206  RH  085%=      5-min Rain = 0
KHA3 251422Z 16015KT 23/20 A2999 RMK A01 T02330204  RH  084%=      5-min Rain = 0
KHA3 251423Z 16014KT 23/21 A2999 RMK A01 T02320205  RH  084%=      5-min Rain = 0
KHA3 251424Z 16012KT 23/21 A2999 RMK A01 T02320205  RH  085%=      5-min Rain = 0
KHA3 251425Z 16012KT 23/21 A2999 RMK A01 T02330207  RH  085%=      5-min Rain = 0
KHA3 251426Z 16013KT 23/21 A2999 RMK A01 T02340207  RH  085%=      5-min Rain = 0
KHA3 251427Z 17015KT 24/21 A2999 RMK A01 T02350206  RH  084%=      5-min Rain = 0
KHA3 251428Z 16013KT 24/21 A2999 RMK A01 T02350205  RH  083%=      5-min Rain = 0
KHA3 251429Z 16014KT 24/21 A30 RMK A01 T02360207  RH  084%=      5-min Rain = 0
KHA3 251430Z 16015KT 24/21 A30 RMK A01 T02360205  RH  083%=      5-min Rain = 0
KHA3 251431Z 17015KT 24/21 A30 RMK A01 T02370206  RH  083%=      5-min Rain = 0
KHA3 251432Z 16014KT 24/21 A30 RMK A01 T02380206  RH  082%=      5-min Rain = 0
KHA3 251433Z 16013KT 24/21 A30 RMK A01 T02380205  RH  082%=      5-min Rain = 0
KHA3 251434Z 16012KT 24/21 A30 RMK A01 T02380206  RH  082%=      5-min Rain = 0
KHA3 251435Z 16012KT 24/21 A30 RMK A01 T02390207  RH  083%=      5-min Rain = 0
KHA3 251436Z 15013KT 24/21 A30 RMK A01 T02390206  RH  082%=      5-min Rain = 0
KHA3 251437Z 15012KT 24/21 A30 RMK A01 T02390208  RH  083%=      5-min Rain = 0
KHA3 251438Z 15013KT 24/21 A30 RMK A01 T02390207  RH  082%=      5-min Rain = 0
KHA3 251439Z 16013KT 24/21 A30 RMK A01 T02390207  RH  083%=      5-min Rain = 0
KHA3 251440Z 16013KT 24/21 A30 RMK A01 T02390208  RH  082%=      5-min Rain = 0
KHA3 251441Z 17011KT 24/21 A30 RMK A01 T02400207  RH  082%=      5-min Rain = 0
KHA3 251442Z 17010KT 24/21 A30 RMK A01 T02400209  RH  082%=      5-min Rain = 0
KHA3 251443Z 17010KT 24/21 A30 RMK A01 T02410211  RH  083%=      5-min Rain = 0
KHA3 251444Z 16008KT 24/21 A30 RMK A01 T02430212  RH  083%=      5-min Rain = 0
KHA3 251445Z 17007KT 25/22 A30 RMK A01 T02450216  RH  084%=      5-min Rain = 0
KHA3 251446Z 17011KT 25/21 A30 RMK A01 T02460213  RH  082%=      5-min Rain = 0
KHA3 251447Z 17011KT 24/21 A30 RMK A01 T02440207  RH  080%=      5-min Rain = 0
KHA3 251448Z 17010KT 24/21 A30 RMK A01 T02420208  RH  082%=      5-min Rain = 0
KHA3 251449Z 16011KT 24/21 A30 RMK A01 T02400210  RH  083%=      5-min Rain = 0
KHA3 251450Z 16013KT 24/21 A30 RMK A01 T02380207  RH  083%=      5-min Rain = 0
KHA3 251451Z 17012KT 24/21 A30 RMK A01 T02370206  RH  083%=      5-min Rain = 0
KHA3 251452Z 16013KT 24/21 A30 RMK A01 T02370206  RH  083%=      5-min Rain = 0
KHA3 251453Z 16011KT 24/21 A30 RMK A01 T02360205  RH  083%=      5-min Rain = 0
KHA3 251454Z 16014KT 24/21 A30 RMK A01 T02360205  RH  083%=      5-min Rain = 0
KHA3 251455Z 16012KT 24/21 A30 RMK A01 T02360205  RH  083%=      5-min Rain = 0
KHA3 251456Z 15010KT 24/21 A30 RMK A01 T02370208  RH  083%=      5-min Rain = 0
KHA3 251457Z 17012KT 24/21 A30 RMK A01 T02380207  RH  083%=      5-min Rain = 0
KHA3 251458Z 16012KT 24/21 A30 RMK A01 T02380206  RH  082%=      5-min Rain = 0
KHA3 251459Z 16011KT 24/21 A30 RMK A01 T02390206  RH  082%=      5-min Rain = 0
KHA3 251500Z 16012KT 24/21 A30 RMK A01 T02390207  RH  082%=      5-min Rain = 0
KHA3 251501Z 16010KT 24/21 A30 RMK A01 T02390208  RH  083%=      5-min Rain = 0
KHA3 251502Z 15009KT 24/21 A30 RMK A01 T02410211  RH  083%=      5-min Rain = 0
KHA3 251503Z 16008KT 24/21 A30 RMK A01 T02440213  RH  083%=      5-min Rain = 0
KHA3 251504Z 16012KT 25/21 A30 RMK A01 T02460212  RH  081%=      5-min Rain = 0
KHA3 251505Z 16013KT 25/21 A30 RMK A01 T02470210  RH  080%=      5-min Rain = 0
KHA3 251506Z 16013KT 25/21 A30 RMK A01 T02470209  RH  080%=      5-min Rain = 0
KHA3 251507Z 17014KT 25/21 A30 RMK A01 T02470210  RH  080%=      5-min Rain = 0
KHA3 251508Z 17012KT 25/21 A30 RMK A01 T02480208  RH  078%=      5-min Rain = 0
KHA3 251509Z 16012KT 25/21 A30 RMK A01 T02480210  RH  080%=      5-min Rain = 0
KHA3 251510Z 16013KT 25/21 A30 RMK A01 T02480209  RH  079%=      5-min Rain = 0
KHA3 251511Z 16013KT 25/21 A30 RMK A01 T02480209  RH  079%=      5-min Rain = 0
KHA3 251512Z 16011KT 25/21 A30 RMK A01 T02470210  RH  080%=      5-min Rain = 0
KHA3 251513Z 17010KT 25/21 A30 RMK A01 T02470212  RH  081%=      5-min Rain = 0
KHA3 251514Z 16008KT 25/21 A30 RMK A01 T02470211  RH  080%=      5-min Rain = 0
KHA3 251515Z 14010KT 25/21 A30 RMK A01 T02470212  RH  081%=      5-min Rain = 0
KHA3 251516Z 16011KT 25/21 A30 RMK A01 T02470210  RH  080%=      5-min Rain = 0
KHA3 251517Z 16012KT 25/21 A30 RMK A01 T02460207  RH  079%=      5-min Rain = 0
KHA3 251518Z 17010KT 25/21 A30 RMK A01 T02450208  RH  079%=      5-min Rain = 0
KHA3 251519Z 17010KT 25/21 A30 RMK A01 T02450209  RH  080%=      5-min Rain = 0
KHA3 251520Z 17009KT 25/21 A30 RMK A01 T02450209  RH  080%=      5-min Rain = 0
KHA3 251521Z 17010KT 25/21 A30 RMK A01 T02450210  RH  081%=      5-min Rain = 0
KHA3 251522Z 16009KT 25/21 A30 RMK A01 T02460211  RH  081%=      5-min Rain = 0
KHA3 251523Z 14010KT 25/21 A30 RMK A01 T02460209  RH  080%=      5-min Rain = 0
KHA3 251524Z 15009KT 25/21 A30 RMK A01 T02460210  RH  080%=      5-min Rain = 0
KHA3 251525Z 15009KT 25/21 A30 RMK A01 T02460211  RH  081%=      5-min Rain = 0
KHA3 251526Z 16011KT 25/21 A30 RMK A01 T02460209  RH  080%=      5-min Rain = 0
KHA3 251527Z 15010KT 25/21 A30 RMK A01 T02460209  RH  080%=      5-min Rain = 0
KHA3 251528Z 17011KT 25/21 A30 RMK A01 T02460209  RH  080%=      5-min Rain = 0
KHA3 251529Z 16010KT 25/21 A30 RMK A01 T02460209  RH  080%=      5-min Rain = 0
KHA3 251530Z 15010KT 25/21 A30 RMK A01 T02470209  RH  080%=      5-min Rain = 0
KHA3 251531Z 16010KT 25/21 A30 RMK A01 T02470209  RH  079%=      5-min Rain = 0
KHA3 251532Z 15009KT 25/21 A30 RMK A01 T02480211  RH  080%=      5-min Rain = 0
KHA3 251533Z 15010KT 25/21 A30 RMK A01 T02490212  RH  080%=      5-min Rain = 0
KHA3 251534Z 16010KT 25/21 A30 RMK A01 T02500211  RH  079%=      5-min Rain = 0
KHA3 251535Z 16010KT 25/21 A30 RMK A01 T02500213  RH  080%=      5-min Rain = 0
KHA3 251536Z 17010KT 25/21 A30 RMK A01 T02500211  RH  079%=      5-min Rain = 0
KHA3 251537Z 15009KT 25/21 A30 RMK A01 T02510214  RH  080%=      5-min Rain = 0
KHA3 251538Z 17009KT 25/21 A30 RMK A01 T02510212  RH  079%=      5-min Rain = 0
KHA3 251539Z 17009KT 25/21 A30 RMK A01 T02520213  RH  079%=      5-min Rain = 0
KHA3 251540Z 17010KT 25/21 A30 RMK A01 T02530213  RH  078%=      5-min Rain = 0
KHA3 251541Z 17010KT 25/21 A30 RMK A01 T02530212  RH  078%=      5-min Rain = 0
KHA3 251542Z 15012G17KT 25/21 A30 RMK A01 T02530212  RH  078%=      5-min Rain = 0
KHA3 251543Z 18012KT 25/21 A30 RMK A01 T02520210  RH  078%=      5-min Rain = 0
KHA3 251544Z 18012KT 25/21 A30 RMK A01 T02530211  RH  077%=      5-min Rain = 0
KHA3 251545Z 17011KT 25/21 A30 RMK A01 T02520211  RH  078%=      5-min Rain = 0
KHA3 251546Z 17011KT 25/21 A30 RMK A01 T02520212  RH  079%=      5-min Rain = 0
KHA3 251547Z 17012KT 25/21 A30 RMK A01 T02530212  RH  078%=      5-min Rain = 0
KHA3 251548Z 17011KT 25/21 A30 RMK A01 T02530212  RH  078%=      5-min Rain = 0
KHA3 251549Z 17015KT 25/21 A30 RMK A01 T02530211  RH  077%=      5-min Rain = 0
KHA3 251550Z 17014KT 25/21 A30 RMK A01 T02530210  RH  077%=      5-min Rain = 0
KHA3 251551Z 17014KT 25/21 A30 RMK A01 T02530209  RH  077%=      5-min Rain = 0
KHA3 251552Z 17013KT 25/21 A30 RMK A01 T02520209  RH  077%=      5-min Rain = 0
KHA3 251553Z 18013KT 25/21 A30 RMK A01 T02520210  RH  077%=      5-min Rain = 0
KHA3 251554Z 18012KT 25/21 A30 RMK A01 T02530209  RH  077%=      5-min Rain = 0
KHA3 251555Z 18013KT 25/21 A30 RMK A01 T02530210  RH  077%=      5-min Rain = 0
KHA3 251556Z 18012KT 25/21 A30 RMK A01 T02520209  RH  077%=      5-min Rain = 0
KHA3 251557Z 18012KT 25/21 A30 RMK A01 T02520210  RH  077%=      5-min Rain = 0
KHA3 251558Z 17013KT 25/21 A30 RMK A01 T02520209  RH  077%=      5-min Rain = 0
KHA3 251559Z 17016KT 25/21 A30 RMK A01 T02520209  RH  077%=      5-min Rain = 0
KHA3 251600Z 16014KT 25/21 A30 RMK A01 T02530208  RH  076%=      5-min Rain = 0
KHA3 251601Z 17013KT 25/21 A30 RMK A01 T02540210  RH  077%=      5-min Rain = 0
KHA3 251602Z 18013KT 26/21 A30 RMK A01 T02550210  RH  076%=      5-min Rain = 0
KHA3 251603Z 17010KT 26/21 A30 RMK A01 T02560214  RH  077%=      5-min Rain = 0
KHA3 251604Z 16014KT 26/21 A30 RMK A01 T02580214  RH  077%=      5-min Rain = 0
KHA3 251605Z 16014KT 26/21 A30 RMK A01 T02590212  RH  075%=      5-min Rain = 0
KHA3 251606Z 16012KT 26/21 A30 RMK A01 T02580212  RH  075%=      5-min Rain = 0
KHA3 251607Z 17012KT 26/21 A30 RMK A01 T02570213  RH  076%=      5-min Rain = 0
KHA3 251608Z 16014KT 26/21 A30 RMK A01 T02570212  RH  076%=      5-min Rain = 0
KHA3 251609Z 16011KT 26/21 A30 RMK A01 T02560213  RH  077%=      5-min Rain = 0
KHA3 251610Z 17012KT 26/22 A30 RMK A01 T02570215  RH  078%=      5-min Rain = 0
KHA3 251611Z 17013KT 26/21 A30 RMK A01 T02570212  RH  076%=      5-min Rain = 0
KHA3 251612Z 17015KT 26/21 A2999 RMK A01 T02570211  RH  076%=      5-min Rain = 0
KHA3 251613Z 16013KT 26/21 A2999 RMK A01 T02570210  RH  075%=      5-min Rain = 0
KHA3 251614Z 16014KT 26/21 A2999 RMK A01 T02570211  RH  076%=      5-min Rain = 0
KHA3 251615Z 17013KT 26/21 A2999 RMK A01 T02580213  RH  076%=      5-min Rain = 0
KHA3 251616Z 17013KT 26/21 A2999 RMK A01 T02590214  RH  077%=      5-min Rain = 0
KHA3 251617Z 17014KT 26/21 A2999 RMK A01 T02590211  RH  075%=      5-min Rain = 0
KHA3 251618Z 16014KT 26/21 A2999 RMK A01 T02590213  RH  076%=      5-min Rain = 0
KHA3 251619Z 16012KT 26/21 A2999 RMK A01 T02590211  RH  075%=      5-min Rain = 0
KHA3 251620Z 16013KT 26/21 A2999 RMK A01 T02600214  RH  076%=      5-min Rain = 0
KHA3 251621Z 17012KT 26/21 A2999 RMK A01 T02620214  RH  075%=      5-min Rain = 0
KHA3 251622Z 18013KT 26/22 A2999 RMK A01 T02640217  RH  075%=      5-min Rain = 0
KHA3 251623Z 17013G18KT 26/21 A2999 RMK A01 T02640214  RH  074%=      5-min Rain = 0
KHA3 251624Z 17012KT 26/22 A2999 RMK A01 T02630215  RH  075%=      5-min Rain = 0
KHA3 251625Z 16012KT 26/22 A2999 RMK A01 T02640218  RH  076%=      5-min Rain = 0
KHA3 251626Z 16013KT 27/22 A2999 RMK A01 T02650216  RH  074%=      5-min Rain = 0
KHA3 251627Z 17013KT 27/21 A2999 RMK A01 T02650214  RH  073%=      5-min Rain = 0
KHA3 251628Z 17012KT 26/21 A2999 RMK A01 T02630214  RH  074%=      5-min Rain = 0
KHA3 251629Z 17010KT 26/22 A30 RMK A01 T02620215  RH  075%=      5-min Rain = 0
KHA3 251630Z 16014KT 26/22 A30 RMK A01 T02620215  RH  075%=      5-min Rain = 0
KHA3 251631Z 17013KT 26/21 A30 RMK A01 T02610214  RH  075%=      5-min Rain = 0
KHA3 251632Z 16012KT 26/21 A30 RMK A01 T02600214  RH  076%=      5-min Rain = 0
KHA3 251633Z 17012KT 26/22 A30 RMK A01 T02590216  RH  077%=      5-min Rain = 0
KHA3 251634Z 17014KT 26/21 A2999 RMK A01 T02590214  RH  076%=      5-min Rain = 0
KHA3 251635Z 16013KT 26/21 A2999 RMK A01 T02590213  RH  076%=      5-min Rain = 0
KHA3 251636Z 16015KT 26/21 A2999 RMK A01 T02580212  RH  075%=      5-min Rain = 0
KHA3 251637Z 16013KT 26/21 A2999 RMK A01 T02580212  RH  076%=      5-min Rain = 0
KHA3 251638Z 17012G17KT 26/22 A2999 RMK A01 T02580215  RH  077%=      5-min Rain = 0
KHA3 251639Z 17014KT 26/21 A2999 RMK A01 T02570211  RH  076%=      5-min Rain = 0
KHA3 251640Z 17010KT 26/21 A2999 RMK A01 T02570213  RH  077%=      5-min Rain = 0
KHA3 251641Z 17012KT 26/21 A2999 RMK A01 T02570213  RH  076%=      5-min Rain = 0
KHA3 251642Z 18013KT 26/21 A2999 RMK A01 T02570212  RH  076%=      5-min Rain = 0
KHA3 251643Z 18015KT 26/21 A2999 RMK A01 T02570212  RH  076%=      5-min Rain = 0
KHA3 251644Z 18013KT 26/21 A2999 RMK A01 T02570211  RH  076%=      5-min Rain = 0
KHA3 251645Z 18011KT 26/21 A2999 RMK A01 T02570212  RH  076%=      5-min Rain = 0
KHA3 251646Z 17010KT 26/21 A2999 RMK A01 T02570213  RH  077%=      5-min Rain = 0
KHA3 251647Z 18010KT 26/22 A2999 RMK A01 T02570215  RH  078%=      5-min Rain = 0
KHA3 251648Z 18011KT 26/22 A2999 RMK A01 T02570215  RH  077%=      5-min Rain = 0
KHA3 251649Z 18012KT 26/21 A2999 RMK A01 T02570213  RH  077%=      5-min Rain = 0
KHA3 251650Z 17012KT 26/21 A2999 RMK A01 T02570213  RH  077%=      5-min Rain = 0
KHA3 251651Z 18011KT 26/21 A2999 RMK A01 T02570214  RH  077%=      5-min Rain = 0
KHA3 251652Z 17013KT 26/21 A2999 RMK A01 T02570212  RH  076%=      5-min Rain = 0
KHA3 251653Z 18011KT 26/21 A2999 RMK A01 T02570212  RH  076%=      5-min Rain = 0
KHA3 251654Z 17010KT 26/21 A2999 RMK A01 T02580214  RH  077%=      5-min Rain = 0
KHA3 251655Z 17010KT 26/22 A2999 RMK A01 T02580215  RH  077%=      5-min Rain = 0
KHA3 251656Z 17010KT 26/22 A2999 RMK A01 T02590216  RH  077%=      5-min Rain = 0
KHA3 251657Z 17011KT 26/21 A2999 RMK A01 T02590214  RH  076%=      5-min Rain = 0
KHA3 251658Z 17009KT 26/22 A2999 RMK A01 T02590215  RH  077%=      5-min Rain = 0
KHA3 251659Z 17012KT 26/22 A2999 RMK A01 T02600215  RH  076%=      5-min Rain = 0
KHA3 251700Z 17014KT 26/21 A2999 RMK A01 T02600214  RH  076%=      5-min Rain = 0
KHA3 251701Z 18013KT 26/21 A2999 RMK A01 T02600213  RH  075%=      5-min Rain = 0
KHA3 251702Z 16012KT 26/21 A2999 RMK A01 T02600214  RH  076%=      5-min Rain = 0
KHA3 251703Z 17013KT 26/21 A2999 RMK A01 T02610213  RH  075%=      5-min Rain = 0
KHA3 251704Z 17012KT 26/21 A2999 RMK A01 T02610213  RH  075%=      5-min Rain = 0
KHA3 251705Z 16011KT 26/22 A30 RMK A01 T02610215  RH  076%=      5-min Rain = 0
KHA3 251706Z 18009KT 26/22 A30 RMK A01 T02610216  RH  076%=      5-min Rain = 0
KHA3 251707Z 18010KT 26/22 A30 RMK A01 T02610216  RH  076%=      5-min Rain = 0
KHA3 251708Z 18011KT 26/22 A30 RMK A01 T02610215  RH  076%=      5-min Rain = 0
KHA3 251709Z 18012KT 26/21 A30 RMK A01 T02610214  RH  075%=      5-min Rain = 0
KHA3 251710Z 18011KT 26/21 A30 RMK A01 T02600213  RH  075%=      5-min Rain = 0
KHA3 251711Z 18012KT 26/21 A30 RMK A01 T02600213  RH  076%=      5-min Rain = 0
KHA3 251712Z 18012KT 26/21 A30 RMK A01 T02600213  RH  075%=      5-min Rain = 0
KHA3 251713Z 17010KT 26/21 A30 RMK A01 T02590213  RH  076%=      5-min Rain = 0
KHA3 251714Z 18011KT 26/22 A30 RMK A01 T02590215  RH  077%=      5-min Rain = 0
KHA3 251715Z 18011KT 26/21 A2999 RMK A01 T02590213  RH  076%=      5-min Rain = 0
KHA3 251716Z 17011KT 26/21 A2999 RMK A01 T02590213  RH  076%=      5-min Rain = 0
KHA3 251717Z 18010KT 26/21 A2999 RMK A01 T02580213  RH  076%=      5-min Rain = 0
KHA3 251718Z 18011KT 26/21 A2999 RMK A01 T02580214  RH  076%=      5-min Rain = 0
KHA3 251719Z 18010KT 26/21 A2999 RMK A01 T02580212  RH  076%=      5-min Rain = 0
KHA3 251720Z 18012KT 26/21 A2999 RMK A01 T02590214  RH  076%=      5-min Rain = 0
KHA3 251721Z 18011KT 26/21 A2999 RMK A01 T02580212  RH  076%=      5-min Rain = 0
KHA3 251722Z 18009KT 26/21 A2999 RMK A01 T02580213  RH  076%=      5-min Rain = 0
KHA3 251723Z 18011KT 26/21 A2999 RMK A01 T02580213  RH  076%=      5-min Rain = 0
KHA3 251724Z 18009KT 26/21 A2999 RMK A01 T02580214  RH  076%=      5-min Rain = 0
KHA3 251725Z 18008KT 26/21 A2999 RMK A01 T02580214  RH  077%=      5-min Rain = 0
KHA3 251726Z 17011KT 26/21 A2999 RMK A01 T02580214  RH  076%=      5-min Rain = 0
KHA3 251727Z 17009KT 26/21 A2999 RMK A01 T02580214  RH  077%=      5-min Rain = 0
KHA3 251728Z 17011KT 26/21 A2999 RMK A01 T02580214  RH  077%=      5-min Rain = 0
KHA3 251729Z 18010KT 26/21 A2999 RMK A01 T02580214  RH  077%=      5-min Rain = 0
KHA3 251730Z 18009KT 26/22 A2999 RMK A01 T02580215  RH  077%=      5-min Rain = 0
KHA3 251731Z 18010KT 26/22 A2999 RMK A01 T02580215  RH  077%=      5-min Rain = 0
KHA3 251732Z 18011KT 26/21 A2999 RMK A01 T02580214  RH  076%=      5-min Rain = 0
KHA3 251733Z 18012KT 26/21 A2999 RMK A01 T02580212  RH  076%=      5-min Rain = 0
KHA3 251734Z 17010KT 26/21 A2999 RMK A01 T02590212  RH  075%=      5-min Rain = 0
KHA3 251735Z 18011KT 26/21 A2999 RMK A01 T02590212  RH  075%=      5-min Rain = 0
KHA3 251736Z 17011KT 26/21 A2999 RMK A01 T02600213  RH  076%=      5-min Rain = 0
KHA3 251737Z 18012KT 26/21 A2999 RMK A01 T02600212  RH  075%=      5-min Rain = 0
KHA3 251738Z 17010KT 26/21 A2999 RMK A01 T02600213  RH  075%=      5-min Rain = 0
KHA3 251739Z 17012KT 26/21 A2999 RMK A01 T02600213  RH  075%=      5-min Rain = 0
KHA3 251740Z 18010KT 26/21 A2998 RMK A01 T02610213  RH  075%=      5-min Rain = 0
KHA3 251741Z 17010KT 26/22 A2998 RMK A01 T02610215  RH  076%=      5-min Rain = 0
KHA3 251742Z 18012KT 26/21 A2999 RMK A01 T02610214  RH  075%=      5-min Rain = 0
KHA3 251743Z 17012KT 26/21 A2998 RMK A01 T02620213  RH  074%=      5-min Rain = 0
KHA3 251744Z 17012KT 26/21 A2998 RMK A01 T02630213  RH  074%=      5-min Rain = 0
KHA3 251745Z 18011KT 26/21 A2998 RMK A01 T02640214  RH  074%=      5-min Rain = 0
KHA3 251746Z 17010KT 26/21 A2998 RMK A01 T02640214  RH  074%=      5-min Rain = 0
KHA3 251747Z 17013KT 26/22 A2998 RMK A01 T02640216  RH  075%=      5-min Rain = 0
KHA3 251748Z 17013KT 27/21 A2998 RMK A01 T02650214  RH  074%=      5-min Rain = 0
KHA3 251749Z 17013KT 27/21 A2998 RMK A01 T02660214  RH  073%=      5-min Rain = 0
KHA3 251750Z 17013KT 27/21 A2998 RMK A01 T02670214  RH  073%=      5-min Rain = 0
KHA3 251751Z 17014KT 27/22 A2998 RMK A01 T02680215  RH  073%=      5-min Rain = 0
KHA3 251752Z 18012KT 27/21 A2998 RMK A01 T02680214  RH  072%=      5-min Rain = 0
KHA3 251753Z 17012G17KT 27/21 A2998 RMK A01 T02680213  RH  072%=      5-min Rain = 0
KHA3 251754Z 17012KT 27/22 A2998 RMK A01 T02680215  RH  073%=      5-min Rain = 0
KHA3 251755Z 16011KT 27/22 A2998 RMK A01 T02690217  RH  073%=      5-min Rain = 0
KHA3 251756Z 17014KT 27/22 A2998 RMK A01 T02700216  RH  072%=      5-min Rain = 0
KHA3 251757Z 16013KT 27/22 A2998 RMK A01 T02710218  RH  073%=      5-min Rain = 0
KHA3 251758Z 17013KT 27/22 A2998 RMK A01 T02730219  RH  072%=      5-min Rain = 0
KHA3 251759Z 17011KT 27/22 A2998 RMK A01 T02740220  RH  073%=      5-min Rain = 0
KHA3 251800Z 16011G16KT 27/22 A2998 RMK A01 T02740220  RH  072%=      5-min Rain = 0
KHA3 251801Z 16013KT 28/22 A2998 RMK A01 T02750216  RH  070%=      5-min Rain = 0
KHA3 251802Z 17015KT 28/22 A2997 RMK A01 T02760216  RH  070%=      5-min Rain = 0
KHA3 251803Z 17014KT 28/22 A2997 RMK A01 T02760215  RH  069%=      5-min Rain = 0
KHA3 251804Z 17014KT 28/22 A2997 RMK A01 T02760217  RH  070%=      5-min Rain = 0
KHA3 251805Z 16012KT 28/22 A2997 RMK A01 T02770219  RH  070%=      5-min Rain = 0
KHA3 251806Z 15013KT 28/22 A2997 RMK A01 T02790220  RH  071%=      5-min Rain = 0
KHA3 251807Z 16016KT 28/22 A2997 RMK A01 T02800218  RH  069%=      5-min Rain = 0
KHA3 251808Z 17016KT 28/22 A2997 RMK A01 T02790216  RH  069%=      5-min Rain = 0
KHA3 251809Z 17013KT 28/22 A2997 RMK A01 T02780217  RH  069%=      5-min Rain = 0
KHA3 251810Z 18013KT 28/22 A2997 RMK A01 T02780219  RH  070%=      5-min Rain = 0
KHA3 251811Z 18014KT 28/22 A2997 RMK A01 T02760215  RH  069%=      5-min Rain = 0
KHA3 251812Z 17013KT 28/22 A2997 RMK A01 T02750217  RH  071%=      5-min Rain = 0
KHA3 251813Z 17017KT 27/21 A2997 RMK A01 T02740214  RH  070%=      5-min Rain = 0
KHA3 251814Z 17016G21KT 27/21 A2997 RMK A01 T02730214  RH  070%=      5-min Rain = 0
KHA3 251815Z 17015KT 27/21 A2997 RMK A01 T02720214  RH  070%=      5-min Rain = 0
KHA3 251816Z 17013KT 27/22 A2997 RMK A01 T02720215  RH  071%=      5-min Rain = 0
KHA3 251817Z 18013G19KT 27/22 A2997 RMK A01 T02730218  RH  072%=      5-min Rain = 0
KHA3 251818Z 17012KT 28/22 A2997 RMK A01 T02750217  RH  071%=      5-min Rain = 0
KHA3 251819Z 17014KT 28/22 A2997 RMK A01 T02750216  RH  070%=      5-min Rain = 0
KHA3 251820Z 16014KT 28/22 A2996 RMK A01 T02770219  RH  071%=      5-min Rain = 0
KHA3 251821Z 17014KT 28/22 A2996 RMK A01 T02780218  RH  070%=      5-min Rain = 0
KHA3 251822Z 17016KT 28/22 A2996 RMK A01 T02800218  RH  069%=      5-min Rain = 0
KHA3 251823Z 17017KT 28/22 A2996 RMK A01 T02810216  RH  068%=      5-min Rain = 0
KHA3 251824Z 16014KT 28/22 A2996 RMK A01 T02810218  RH  069%=      5-min Rain = 0
KHA3 251825Z 16018KT 28/22 A2996 RMK A01 T02820218  RH  068%=      5-min Rain = 0
KHA3 251826Z 17014KT 28/22 A2996 RMK A01 T02830218  RH  068%=      5-min Rain = 0
KHA3 251827Z 17014KT 28/22 A2996 RMK A01 T02830219  RH  068%=      5-min Rain = 0
KHA3 251828Z 17013KT 28/22 A2996 RMK A01 T02830220  RH  069%=      5-min Rain = 0
KHA3 251829Z 16012G17KT 28/22 A2996 RMK A01 T02830221  RH  069%=      5-min Rain = 0
KHA3 251830Z 16017KT 28/22 A2996 RMK A01 T02830217  RH  067%=      5-min Rain = 0
KHA3 251831Z 16013KT 28/22 A2996 RMK A01 T02810216  RH  068%=      5-min Rain = 0
KHA3 251832Z 17012G18KT 28/22 A2996 RMK A01 T02800219  RH  070%=      5-min Rain = 0
KHA3 251833Z 16016KT 28/22 A2996 RMK A01 T02790216  RH  068%=      5-min Rain = 0
KHA3 251834Z 17015KT 28/22 A2996 RMK A01 T02790215  RH  068%=      5-min Rain = 0
KHA3 251835Z 17013KT 28/22 A2995 RMK A01 T02790217  RH  069%=      5-min Rain = 0
KHA3 251836Z 17012KT 28/22 A2995 RMK A01 T02800217  RH  069%=      5-min Rain = 0
KHA3 251837Z 17012KT 28/22 A2995 RMK A01 T02810220  RH  069%=      5-min Rain = 0
KHA3 251838Z 18014G20KT 28/22 A2995 RMK A01 T02830220  RH  069%=      5-min Rain = 0
KHA3 251839Z 18015KT 28/22 A2995 RMK A01 T02840218  RH  067%=      5-min Rain = 0
KHA3 251840Z 17012G17KT 29/22 A2995 RMK A01 T02860224  RH  069%=      5-min Rain = 0
KHA3 251841Z 16017KT 29/22 A2995 RMK A01 T02880218  RH  066%=      5-min Rain = 0
KHA3 251842Z 17015G22KT 29/22 A2995 RMK A01 T02880217  RH  066%=      5-min Rain = 0
KHA3 251843Z 17017G22KT 29/22 A2995 RMK A01 T02850216  RH  066%=      5-min Rain = 0
KHA3 251844Z 17016KT 28/22 A2995 RMK A01 T02840216  RH  067%=      5-min Rain = 0
KHA3 251845Z 17017KT 28/22 A2995 RMK A01 T02830215  RH  067%=      5-min Rain = 0
KHA3 251846Z 17017KT 28/22 A2995 RMK A01 T02830215  RH  066%=      5-min Rain = 0
KHA3 251847Z 18016KT 28/22 A2995 RMK A01 T02830216  RH  067%=      5-min Rain = 0
KHA3 251848Z 17016KT 28/21 A2995 RMK A01 T02830213  RH  066%=      5-min Rain = 0
KHA3 251849Z 18018KT 28/22 A2995 RMK A01 T02830215  RH  066%=      5-min Rain = 0
KHA3 251850Z 19018KT 28/21 A2995 RMK A01 T02830214  RH  066%=      5-min Rain = 0
KHA3 251851Z 18014KT 28/22 A2995 RMK A01 T02820216  RH  067%=      5-min Rain = 0
KHA3 251852Z 17014KT 28/22 A2995 RMK A01 T02830215  RH  067%=      5-min Rain = 0
KHA3 251853Z 18014KT 29/22 A2995 RMK A01 T02860220  RH  067%=      5-min Rain = 0
KHA3 251854Z 18016KT 29/22 A2995 RMK A01 T02870215  RH  065%=      5-min Rain = 0
KHA3 251855Z 19016G21KT 29/22 A2995 RMK A01 T02880218  RH  066%=      5-min Rain = 0
KHA3 251856Z 18018KT 29/22 A2995 RMK A01 T02880216  RH  065%=      5-min Rain = 0
KHA3 251857Z 18018KT 29/21 A2995 RMK A01 T02860214  RH  065%=      5-min Rain = 0
KHA3 251858Z 18015G22KT 29/21 A2995 RMK A01 T02850214  RH  065%=      5-min Rain = 0
KHA3 251859Z 18015KT 29/22 A2995 RMK A01 T02860220  RH  067%=      5-min Rain = 0
KHA3 251900Z 19021KT 29/22 A2995 RMK A01 T02880219  RH  066%=      5-min Rain = 0
KHA3 251901Z 18019KT 29/22 A2995 RMK A01 T02880217  RH  065%=      5-min Rain = 0
KHA3 251902Z 17013G19KT 29/22 A2995 RMK A01 T02880219  RH  066%=      5-min Rain = 0
KHA3 251903Z 17019KT 29/22 A2995 RMK A01 T02910220  RH  066%=      5-min Rain = 0
KHA3 251904Z 17020KT 29/22 A2995 RMK A01 T02930216  RH  063%=      5-min Rain = 0
KHA3 251905Z 17017KT 29/22 A2995 RMK A01 T02910215  RH  064%=      5-min Rain = 0
KHA3 251906Z 18016KT 29/22 A2995 RMK A01 T02890219  RH  066%=      5-min Rain = 0
KHA3 251907Z 18019G25KT 29/22 A2995 RMK A01 T02900216  RH  064%=      5-min Rain = 0
KHA3 251908Z 19020KT 29/21 A2995 RMK A01 T02880214  RH  064%=      5-min Rain = 0
KHA3 251909Z 18015KT 29/22 A2995 RMK A01 T02870216  RH  066%=      5-min Rain = 0
KHA3 251910Z 19017KT 29/22 A2995 RMK A01 T02860215  RH  065%=      5-min Rain = 0
KHA3 251911Z 19014KT 29/22 A2995 RMK A01 T02860216  RH  066%=      5-min Rain = 0
KHA3 251912Z 19019KT 29/22 A2994 RMK A01 T02880217  RH  065%=      5-min Rain = 0
KHA3 251913Z 19020G25KT 29/22 A2994 RMK A01 T02900216  RH  064%=      5-min Rain = 0
KHA3 251914Z 18019KT 29/22 A2994 RMK A01 T02920216  RH  063%=      5-min Rain = 0
KHA3 251915Z 19021KT 29/22 A2994 RMK A01 T02940218  RH  064%=      5-min Rain = 0
KHA3 251916Z 18018KT 30/22 A2994 RMK A01 T02950215  RH  062%=      5-min Rain = 0
KHA3 251917Z 19015G20KT 30/22 A2994 RMK A01 T02950218  RH  063%=      5-min Rain = 0
KHA3 251918Z 18015KT 29/22 A2995 RMK A01 T02940222  RH  065%=      5-min Rain = 0
KHA3 251919Z 17016KT 30/22 A2995 RMK A01 T02950221  RH  064%=      5-min Rain = 0
KHA3 251920Z 17019KT 30/22 A2994 RMK A01 T02960219  RH  063%=      5-min Rain = 0
KHA3 251921Z 19018KT 30/22 A2994 RMK A01 T02970217  RH  062%=      5-min Rain = 0
KHA3 251922Z 19020KT 30/22 A2994 RMK A01 T02970218  RH  063%=      5-min Rain = 0
KHA3 251923Z 18020KT 30/22 A2994 RMK A01 T02960216  RH  062%=      5-min Rain = 0
KHA3 251924Z 19019KT 30/22 A2994 RMK A01 T02950216  RH  062%=      5-min Rain = 0
KHA3 251925Z 18018KT 30/22 A2994 RMK A01 T02950218  RH  063%=      5-min Rain = 0
KHA3 251926Z 18015KT 30/22 A2994 RMK A01 T02950220  RH  064%=      5-min Rain = 0
KHA3 251927Z 18016KT 29/22 A2994 RMK A01 T02940219  RH  064%=      5-min Rain = 0
KHA3 251928Z 18018KT 29/22 A2994 RMK A01 T02920219  RH  065%=      5-min Rain = 0
KHA3 251929Z 18017KT 29/22 A2994 RMK A01 T02900219  RH  065%=      5-min Rain = 0
KHA3 251930Z 17015KT 29/22 A2994 RMK A01 T02900220  RH  066%=      5-min Rain = 0
KHA3 251931Z 18013KT 29/22 A2994 RMK A01 T02900220  RH  066%=      5-min Rain = 0
KHA3 251932Z 17015KT 29/22 A2994 RMK A01 T02920222  RH  066%=      5-min Rain = 0
KHA3 251933Z 18017KT 29/22 A2994 RMK A01 T02940222  RH  065%=      5-min Rain = 0
KHA3 251934Z 18017KT 29/22 A2994 RMK A01 T02940220  RH  064%=      5-min Rain = 0
KHA3 251935Z 18015G20KT 29/22 A2994 RMK A01 T02920218  RH  064%=      5-min Rain = 0
KHA3 251936Z 17016KT 29/22 A2994 RMK A01 T02890219  RH  066%=      5-min Rain = 0
KHA3 251937Z 18013KT 29/22 A2994 RMK A01 T02880218  RH  066%=      5-min Rain = 0
KHA3 251938Z 18013KT 29/22 A2994 RMK A01 T02870222  RH  068%=      5-min Rain = 0
KHA3 251939Z 18013G18KT 29/22 A2994 RMK A01 T02870220  RH  067%=      5-min Rain = 0
KHA3 251940Z 19016KT 29/22 A2994 RMK A01 T02870219  RH  067%=      5-min Rain = 0
KHA3 251941Z 19017KT 29/22 A2994 RMK A01 T02870218  RH  066%=      5-min Rain = 0
KHA3 251942Z 18014KT 29/22 A2994 RMK A01 T02880220  RH  067%=      5-min Rain = 0
KHA3 251943Z 18016KT 29/22 A2994 RMK A01 T02870219  RH  067%=      5-min Rain = 0
KHA3 251944Z 18017KT 29/22 A2994 RMK A01 T02850217  RH  067%=      5-min Rain = 0
KHA3 251945Z 17015KT 28/22 A2994 RMK A01 T02830218  RH  068%=      5-min Rain = 0
KHA3 251946Z 18015KT 28/22 A2994 RMK A01 T02820218  RH  068%=      5-min Rain = 0
KHA3 251947Z 18017KT 28/22 A2993 RMK A01 T02810217  RH  068%=      5-min Rain = 0
KHA3 251948Z 18016KT 28/22 A2993 RMK A01 T02790216  RH  068%=      5-min Rain = 0
KHA3 251949Z 17014KT 28/22 A2994 RMK A01 T02770219  RH  071%=      5-min Rain = 0
KHA3 251950Z 17015KT 28/22 A2994 RMK A01 T02750220  RH  072%=      5-min Rain = 0
KHA3 251951Z 18013KT 28/22 A2994 RMK A01 T02760221  RH  072%=      5-min Rain = 0
KHA3 251952Z 17014KT 28/22 A2993 RMK A01 T02800223  RH  071%=      5-min Rain = 0
KHA3 251953Z 17015KT 29/23 A2993 RMK A01 T02860226  RH  070%=      5-min Rain = 0
KHA3 251954Z 18016KT 29/22 A2993 RMK A01 T02900222  RH  067%=      5-min Rain = 0
KHA3 251955Z 19013KT 29/22 A2993 RMK A01 T02890223  RH  067%=      5-min Rain = 0
KHA3 251956Z 18016KT 29/22 A2993 RMK A01 T02870221  RH  068%=      5-min Rain = 0
KHA3 251957Z 18015KT 29/22 A2993 RMK A01 T02860221  RH  068%=      5-min Rain = 0
KHA3 251958Z 17015KT 29/22 A2993 RMK A01 T02850218  RH  067%=      5-min Rain = 0
KHA3 251959Z 18012KT 28/22 A2993 RMK A01 T02840222  RH  069%=      5-min Rain = 0
KHA3 252000Z 17013KT 28/22 A2993 RMK A01 T02840219  RH  068%=      5-min Rain = 0
KHA3 252001Z 18011KT 28/22 A2993 RMK A01 T02830220  RH  069%=      5-min Rain = 0
KHA3 252002Z 18016KT 28/22 A2993 RMK A01 T02820220  RH  069%=      5-min Rain = 0
KHA3 252003Z 17016KT 28/21 A2993 RMK A01 T02810214  RH  067%=      5-min Rain = 0
KHA3 252004Z 17015KT 28/21 A2993 RMK A01 T02790214  RH  068%=      5-min Rain = 0
KHA3 252005Z 17013KT 28/22 A2993 RMK A01 T02790216  RH  069%=      5-min Rain = 0
KHA3 252006Z 17016KT 28/22 A2993 RMK A01 T02780216  RH  069%=      5-min Rain = 0
KHA3 252007Z 17014KT 28/22 A2993 RMK A01 T02780216  RH  069%=      5-min Rain = 0
KHA3 252008Z 17014KT 28/22 A2993 RMK A01 T02790217  RH  069%=      5-min Rain = 0
KHA3 252009Z 17010KT 28/22 A2993 RMK A01 T02800220  RH  070%=      5-min Rain = 0
KHA3 252010Z 17011KT 28/22 A2993 RMK A01 T02830222  RH  070%=      5-min Rain = 0
KHA3 252011Z 17010KT 29/22 A2993 RMK A01 T02870224  RH  069%=      5-min Rain = 0
KHA3 252012Z 18012KT 29/22 A2992 RMK A01 T02900224  RH  068%=      5-min Rain = 0
KHA3 252013Z 18014KT 29/22 A2992 RMK A01 T02920222  RH  066%=      5-min Rain = 0
KHA3 252014Z 18013KT 29/22 A2992 RMK A01 T02930221  RH  065%=      5-min Rain = 0
KHA3 252015Z 17013KT 29/22 A2992 RMK A01 T02920220  RH  065%=      5-min Rain = 0
KHA3 252016Z 18011KT 29/22 A2992 RMK A01 T02900220  RH  066%=      5-min Rain = 0
KHA3 252017Z 19012KT 29/22 A2992 RMK A01 T02880222  RH  067%=      5-min Rain = 0
KHA3 252018Z 17014KT 29/22 A2992 RMK A01 T02850221  RH  068%=      5-min Rain = 0
KHA3 252019Z 17013KT 28/22 A2992 RMK A01 T02810220  RH  069%=      5-min Rain = 0
KHA3 252020Z 17011KT 28/22 A2992 RMK A01 T02800219  RH  069%=      5-min Rain = 0
KHA3 252021Z 16014KT 28/22 A2992 RMK A01 T02790221  RH  070%=      5-min Rain = 0
KHA3 252022Z 17015KT 28/22 A2992 RMK A01 T02810220  RH  069%=      5-min Rain = 0
KHA3 252023Z 17015G20KT 28/22 A2992 RMK A01 T02840220  RH  068%=      5-min Rain = 0
KHA3 252024Z 17015KT 29/22 A2992 RMK A01 T02880223  RH  068%=      5-min Rain = 0
KHA3 252025Z 17016KT 29/22 A2992 RMK A01 T02900222  RH  067%=      5-min Rain = 0
KHA3 252026Z 17015KT 29/22 A2992 RMK A01 T02910221  RH  066%=      5-min Rain = 0
KHA3 252027Z 18014KT 29/22 A2992 RMK A01 T02920224  RH  067%=      5-min Rain = 0
KHA3 252028Z 18016KT 29/22 A2992 RMK A01 T02920222  RH  066%=      5-min Rain = 0
KHA3 252029Z 17015KT 29/22 A2992 RMK A01 T02900218  RH  065%=      5-min Rain = 0
KHA3 252030Z 17013KT 29/22 A2992 RMK A01 T02900221  RH  066%=      5-min Rain = 0
KHA3 252031Z 18014KT 29/22 A2992 RMK A01 T02930224  RH  066%=      5-min Rain = 0
KHA3 252032Z 18015KT 30/22 A2992 RMK A01 T02950221  RH  064%=      5-min Rain = 0
KHA3 252033Z 17017KT 30/22 A2992 RMK A01 T02950222  RH  065%=      5-min Rain = 0
KHA3 252034Z 17020KT 30/22 A2992 RMK A01 T02950218  RH  063%=      5-min Rain = 0
KHA3 252035Z 17018KT 29/22 A2992 RMK A01 T02940216  RH  063%=      5-min Rain = 0
KHA3 252036Z 17016KT 29/22 A2992 RMK A01 T02940218  RH  064%=      5-min Rain = 0
KHA3 252037Z 17016KT 29/22 A2991 RMK A01 T02940217  RH  063%=      5-min Rain = 0
KHA3 252038Z 17014KT 30/22 A2991 RMK A01 T02950218  RH  063%=      5-min Rain = 0
KHA3 252039Z 17016KT 30/22 A2991 RMK A01 T02950218  RH  063%=      5-min Rain = 0
KHA3 252040Z 16014KT 30/22 A2991 RMK A01 T02950220  RH  064%=      5-min Rain = 0
KHA3 252041Z 17016G26KT 29/22 A2991 RMK A01 T02940222  RH  065%=      5-min Rain = 0
KHA3 252042Z 17020G26KT 29/22 A2991 RMK A01 T02920216  RH  063%=      5-min Rain = 0
KHA3 252043Z 17018KT 29/21 A2991 RMK A01 T02900214  RH  064%=      5-min Rain = 0
KHA3 252044Z 17014G19KT 29/22 A2991 RMK A01 T02890216  RH  065%=      5-min Rain = 0
KHA3 252045Z 17013KT 29/22 A2991 RMK A01 T02880219  RH  066%=      5-min Rain = 0
KHA3 252046Z 17015KT 29/22 A2991 RMK A01 T02880219  RH  066%=      5-min Rain = 0
KHA3 252047Z 18020KT 29/22 A2991 RMK A01 T02900215  RH  064%=      5-min Rain = 0
KHA3 252048Z 17018KT 29/22 A2991 RMK A01 T02930215  RH  063%=      5-min Rain = 0
KHA3 252049Z 17017G23KT 30/22 A2991 RMK A01 T02960218  RH  063%=      5-min Rain = 0
KHA3 252050Z 17016KT 30/22 A2991 RMK A01 T02990218  RH  062%=      5-min Rain = 0
KHA3 252051Z 17018G23KT 30/22 A2991 RMK A01 T03010218  RH  061%=      5-min Rain = 0
KHA3 252052Z 17017KT 30/22 A2991 RMK A01 T03030218  RH  060%=      5-min Rain = 0
KHA3 252053Z 17018G24KT 30/22 A2991 RMK A01 T03030219  RH  061%=      5-min Rain = 0
KHA3 252054Z 18018KT 30/22 A2991 RMK A01 T03010217  RH  061%=      5-min Rain = 0
KHA3 252055Z 18021KT 30/22 A2991 RMK A01 T02970216  RH  061%=      5-min Rain = 0
KHA3 252056Z 17019G25KT 29/22 A2991 RMK A01 T02940216  RH  063%=      5-min Rain = 0
KHA3 252057Z 16015KT 29/22 A2991 RMK A01 T02930219  RH  064%=      5-min Rain = 0
KHA3 252058Z 17015G20KT 29/22 A2991 RMK A01 T02930222  RH  065%=      5-min Rain = 0
KHA3 252059Z 16014KT 30/22 A2991 RMK A01 T02950222  RH  065%=      5-min Rain = 0
KHA3 252100Z 16016KT 30/22 A2991 RMK A01 T02950222  RH  065%=      5-min Rain = 0
KHA3 252101Z 16017KT 30/22 A2991 RMK A01 T02960218  RH  063%=      5-min Rain = 0
KHA3 252102Z 16015G20KT 30/22 A2991 RMK A01 T02970221  RH  064%=      5-min Rain = 0
KHA3 252103Z 16014KT 30/22 A2991 RMK A01 T02980221  RH  063%=      5-min Rain = 0
KHA3 252104Z 16014KT 30/23 A2991 RMK A01 T03000226  RH  065%=      5-min Rain = 0
KHA3 252105Z 16019G25KT 30/22 A2991 RMK A01 T03000220  RH  062%=      5-min Rain = 0
KHA3 252106Z 17018KT 30/22 A2991 RMK A01 T02980216  RH  062%=      5-min Rain = 0
KHA3 252107Z 17018KT 30/22 A2991 RMK A01 T02960217  RH  062%=      5-min Rain = 0
KHA3 252108Z 17016KT 30/22 A2991 RMK A01 T02960217  RH  063%=      5-min Rain = 0
KHA3 252109Z 17016KT 30/22 A2991 RMK A01 T02970219  RH  063%=      5-min Rain = 0
KHA3 252110Z 16014KT 30/22 A2991 RMK A01 T02980219  RH  063%=      5-min Rain = 0
KHA3 252111Z 15018KT 30/22 A2991 RMK A01 T03000219  RH  062%=      5-min Rain = 0
KHA3 252112Z 15018KT 30/22 A2991 RMK A01 T02990215  RH  061%=      5-min Rain = 0
KHA3 252113Z 15018KT 29/21 A2991 RMK A01 T02940214  RH  062%=      5-min Rain = 0
KHA3 252114Z 16015KT 29/22 A2991 RMK A01 T02910217  RH  064%=      5-min Rain = 0
KHA3 252115Z 16014G19KT 29/22 A2991 RMK A01 T02890218  RH  065%=      5-min Rain = 0
KHA3 252116Z 16015KT 29/22 A2991 RMK A01 T02870216  RH  065%=      5-min Rain = 0
KHA3 252117Z 16013KT 29/22 A2991 RMK A01 T02860216  RH  066%=      5-min Rain = 0
KHA3 252118Z 16014KT 29/22 A2991 RMK A01 T02860218  RH  067%=      5-min Rain = 0
KHA3 252119Z 17013KT 29/22 A2991 RMK A01 T02880219  RH  066%=      5-min Rain = 0
KHA3 252120Z 17017KT 29/22 A2991 RMK A01 T02920221  RH  066%=      5-min Rain = 0
KHA3 252121Z 17015KT 29/22 A2991 RMK A01 T02920219  RH  065%=      5-min Rain = 0
KHA3 252122Z 17016KT 29/22 A2991 RMK A01 T02900219  RH  065%=      5-min Rain = 0
KHA3 252123Z 17015KT 29/22 A2991 RMK A01 T02900218  RH  065%=      5-min Rain = 0
KHA3 252124Z 17015KT 29/22 A2991 RMK A01 T02900217  RH  064%=      5-min Rain = 0
KHA3 252125Z 17018KT 29/22 A2991 RMK A01 T02940218  RH  064%=      5-min Rain = 0
KHA3 252126Z 17015KT 30/22 A2991 RMK A01 T02970221  RH  064%=      5-min Rain = 0
KHA3 252127Z 17020KT 30/22 A299 RMK A01 T02990219  RH  062%=      5-min Rain = 0
KHA3 252128Z 17019KT 30/22 A299 RMK A01 T02980217  RH  062%=      5-min Rain = 0
KHA3 252129Z 17015KT 30/22 A299 RMK A01 T02960217  RH  063%=      5-min Rain = 0
KHA3 252130Z 17018G23KT 29/22 A2991 RMK A01 T02940217  RH  063%=      5-min Rain = 0
KHA3 252131Z 17019KT 29/22 A299 RMK A01 T02920215  RH  063%=      5-min Rain = 0
KHA3 252132Z 17018G23KT 29/21 A299 RMK A01 T02900214  RH  064%=      5-min Rain = 0
KHA3 252133Z 16015KT 29/21 A299 RMK A01 T02880214  RH  064%=      5-min Rain = 0
KHA3 252134Z 17014KT 29/22 A299 RMK A01 T02870216  RH  065%=      5-min Rain = 0
KHA3 252135Z 17012KT 29/22 A299 RMK A01 T02860217  RH  066%=      5-min Rain = 0
KHA3 252136Z 17015KT 29/22 A299 RMK A01 T02850216  RH  066%=      5-min Rain = 0
KHA3 252137Z 17014KT 29/22 A299 RMK A01 T02850217  RH  067%=      5-min Rain = 0
KHA3 252138Z 17015KT 29/22 A299 RMK A01 T02850217  RH  067%=      5-min Rain = 0
KHA3 252139Z 17016G21KT 28/22 A299 RMK A01 T02840217  RH  067%=      5-min Rain = 0
KHA3 252140Z 16018G23KT 29/22 A299 RMK A01 T02850216  RH  066%=      5-min Rain = 0
KHA3 252141Z 16019G24KT 29/21 A299 RMK A01 T02850214  RH  066%=      5-min Rain = 0
KHA3 252142Z 15020KT 29/21 A2989 RMK A01 T02850213  RH  065%=      5-min Rain = 0
KHA3 252143Z 16017G22KT 29/21 A2989 RMK A01 T02850214  RH  065%=      5-min Rain = 0
KHA3 252144Z 16018KT 28/21 A2989 RMK A01 T02840213  RH  065%=      5-min Rain = 0
KHA3 252145Z 16018KT 29/21 A2989 RMK A01 T02850212  RH  065%=      5-min Rain = 0
KHA3 252146Z 17017KT 29/21 A2989 RMK A01 T02870213  RH  064%=      5-min Rain = 0
KHA3 252147Z 17018KT 29/22 A2989 RMK A01 T02890215  RH  064%=      5-min Rain = 0
KHA3 252148Z 17019KT 29/22 A2989 RMK A01 T02920216  RH  064%=      5-min Rain = 0
KHA3 252149Z 17018G23KT 29/22 A2989 RMK A01 T02940217  RH  063%=      5-min Rain = 0
KHA3 252150Z 17020KT 30/22 A2989 RMK A01 T02960217  RH  062%=      5-min Rain = 0
KHA3 252151Z 16019G24KT 30/22 A2989 RMK A01 T02980217  RH  062%=      5-min Rain = 0
KHA3 252152Z 15020KT 30/22 A2989 RMK A01 T03000217  RH  061%=      5-min Rain = 0
KHA3 252153Z 16020G25KT 30/22 A2988 RMK A01 T03010215  RH  060%=      5-min Rain = 0
KHA3 252154Z 17019KT 30/22 A2988 RMK A01 T03010216  RH  061%=      5-min Rain = 0
KHA3 252155Z 17017G22KT 30/22 A2988 RMK A01 T02980217  RH  062%=      5-min Rain = 0
KHA3 252156Z 17021KT 30/22 A2988 RMK A01 T02950216  RH  062%=      5-min Rain = 0
KHA3 252157Z 16020G25KT 29/22 A2988 RMK A01 T02930215  RH  063%=      5-min Rain = 0
KHA3 252158Z 16021KT 29/21 A2988 RMK A01 T02910212  RH  062%=      5-min Rain = 0
KHA3 252159Z 17019KT 29/21 A2988 RMK A01 T02890213  RH  064%=      5-min Rain = 0
KHA3 252200Z 17015KT 29/22 A2988 RMK A01 T02880215  RH  065%=      5-min Rain = 0
KHA3 252201Z 17017KT 29/22 A2988 RMK A01 T02880215  RH  065%=      5-min Rain = 0
KHA3 252202Z 17016KT 29/22 A2988 RMK A01 T02890216  RH  065%=      5-min Rain = 0
KHA3 252203Z 17017KT 29/22 A2988 RMK A01 T02890216  RH  064%=      5-min Rain = 0
KHA3 252204Z 17016KT 29/22 A2988 RMK A01 T02920216  RH  064%=      5-min Rain = 0
KHA3 252205Z 17019G26KT 29/22 A2988 RMK A01 T02940216  RH  063%=      5-min Rain = 0
KHA3 252206Z 17021KT 29/21 A2988 RMK A01 T02940211  RH  061%=      5-min Rain = 0
KHA3 252207Z 18023KT 30/21 A2988 RMK A01 T02950209  RH  060%=      5-min Rain = 0
KHA3 252208Z 18021G26KT 30/21 A2987 RMK A01 T02960210  RH  060%=      5-min Rain = 0
KHA3 252209Z 18021KT 30/21 A2988 RMK A01 T02980211  RH  060%=      5-min Rain = 0
KHA3 252210Z 18023KT 30/21 A2988 RMK A01 T02970210  RH  059%=      5-min Rain = 0
KHA3 252211Z 18022KT 30/21 A2988 RMK A01 T02970211  RH  060%=      5-min Rain = 0
KHA3 252212Z 18021KT 30/21 A2988 RMK A01 T02970212  RH  060%=      5-min Rain = 0
KHA3 252213Z 18020G25KT 30/21 A2988 RMK A01 T02970212  RH  060%=      5-min Rain = 0
KHA3 252214Z 18019KT 30/21 A2988 RMK A01 T02980213  RH  060%=      5-min Rain = 0
KHA3 252215Z 17018KT 30/21 A2988 RMK A01 T02980214  RH  061%=      5-min Rain = 0
KHA3 252216Z 17017KT 30/21 A2988 RMK A01 T02970214  RH  061%=      5-min Rain = 0
KHA3 252217Z 17016KT 30/21 A2988 RMK A01 T02960214  RH  061%=      5-min Rain = 0
KHA3 252218Z 17017KT 29/22 A2988 RMK A01 T02940216  RH  063%=      5-min Rain = 0
KHA3 252219Z 17019KT 29/21 A2988 RMK A01 T02930214  RH  062%=      5-min Rain = 0
KHA3 252220Z 17016KT 29/21 A2988 RMK A01 T02930214  RH  063%=      5-min Rain = 0
KHA3 252221Z 18018KT 29/22 A2988 RMK A01 T02930216  RH  063%=      5-min Rain = 0
KHA3 252222Z 17020KT 29/21 A2988 RMK A01 T02940214  RH  062%=      5-min Rain = 0
KHA3 252223Z 17015KT 30/22 A2988 RMK A01 T02950217  RH  063%=      5-min Rain = 0
KHA3 252224Z 17015KT 30/22 A2988 RMK A01 T02950217  RH  063%=      5-min Rain = 0
KHA3 252225Z 17017KT 30/22 A2988 RMK A01 T02950216  RH  062%=      5-min Rain = 0
KHA3 252226Z 17017KT 30/22 A2988 RMK A01 T02950217  RH  063%=      5-min Rain = 0
KHA3 252227Z 17016KT 30/22 A2988 RMK A01 T02960219  RH  063%=      5-min Rain = 0
KHA3 252228Z 17019KT 30/22 A2988 RMK A01 T02960217  RH  063%=      5-min Rain = 0
KHA3 252229Z 18016KT 30/22 A2988 RMK A01 T02950216  RH  063%=      5-min Rain = 0
KHA3 252230Z 17019KT 29/22 A2988 RMK A01 T02940216  RH  063%=      5-min Rain = 0
KHA3 252231Z 18018KT 29/22 A2988 RMK A01 T02930215  RH  063%=      5-min Rain = 0
KHA3 252232Z 17019KT 29/21 A2989 RMK A01 T02930214  RH  063%=      5-min Rain = 0
KHA3 252233Z 18017KT 29/21 A2989 RMK A01 T02930214  RH  063%=      5-min Rain = 0
KHA3 252234Z 18017KT 29/22 A2989 RMK A01 T02920215  RH  063%=      5-min Rain = 0
KHA3 252235Z 18018G23KT 29/22 A2989 RMK A01 T02920216  RH  064%=      5-min Rain = 0
KHA3 252236Z 18018KT 29/21 A2988 RMK A01 T02920213  RH  063%=      5-min Rain = 0
KHA3 252237Z 18016KT 29/21 A2988 RMK A01 T02920214  RH  063%=      5-min Rain = 0
KHA3 252238Z 17018KT 29/21 A2988 RMK A01 T02920214  RH  063%=      5-min Rain = 0
KHA3 252239Z 17019KT 29/21 A2988 RMK A01 T02920213  RH  062%=      5-min Rain = 0
KHA3 252240Z 18018KT 29/22 A2988 RMK A01 T02920215  RH  063%=      5-min Rain = 0
KHA3 252241Z 17016KT 29/22 A2988 RMK A01 T02920216  RH  063%=      5-min Rain = 0
KHA3 252242Z 17013KT 29/22 A2987 RMK A01 T02930218  RH  064%=      5-min Rain = 0
KHA3 252243Z 17014KT 29/22 A2987 RMK A01 T02930218  RH  064%=      5-min Rain = 0
KHA3 252244Z 17017G22KT 29/22 A2987 RMK A01 T02930217  RH  063%=      5-min Rain = 0
KHA3 252245Z 17014KT 30/22 A2987 RMK A01 T02950219  RH  064%=      5-min Rain = 0
KHA3 252246Z 17013KT 30/22 A2987 RMK A01 T02980221  RH  064%=      5-min Rain = 0
KHA3 252247Z 16017KT 30/22 A2986 RMK A01 T02990219  RH  062%=      5-min Rain = 0
KHA3 252248Z 16020G25KT 30/22 A2987 RMK A01 T03000218  RH  061%=      5-min Rain = 0
KHA3 252249Z 17024KT 30/21 A2987 RMK A01 T03000214  RH  060%=      5-min Rain = 0
KHA3 252250Z 17020KT 30/22 A2987 RMK A01 T03000215  RH  060%=      5-min Rain = 0
KHA3 252251Z 17016G21KT 30/22 A2987 RMK A01 T03000217  RH  061%=      5-min Rain = 0
KHA3 252252Z 18019KT 30/22 A2987 RMK A01 T03000216  RH  061%=      5-min Rain = 0
KHA3 252253Z 17021KT 30/22 A2987 RMK A01 T03000215  RH  060%=      5-min Rain = 0
KHA3 252254Z 17021KT 30/21 A2987 RMK A01 T02980214  RH  061%=      5-min Rain = 0
KHA3 252255Z 16017KT 30/21 A2987 RMK A01 T02960213  RH  061%=      5-min Rain = 0
KHA3 252256Z 17014KT 30/22 A2987 RMK A01 T02950217  RH  063%=      5-min Rain = 0
KHA3 252257Z 17016KT 30/22 A2987 RMK A01 T02950217  RH  063%=      5-min Rain = 0
KHA3 252258Z 17015KT 29/22 A2987 RMK A01 T02940217  RH  063%=      5-min Rain = 0
KHA3 252259Z 17015KT 29/22 A2987 RMK A01 T02930217  RH  063%=      5-min Rain = 0
KHA3 252300Z 17016KT 29/22 A2987 RMK A01 T02910217  RH  064%=      5-min Rain = 0
KHA3 252301Z 17015G21KT 29/22 A2987 RMK A01 T02900216  RH  064%=      5-min Rain = 0
KHA3 252302Z 18017KT 29/21 A2987 RMK A01 T02890214  RH  064%=      5-min Rain = 0
KHA3 252303Z 18018KT 29/21 A2987 RMK A01 T02890214  RH  064%=      5-min Rain = 0
KHA3 252304Z 17018KT 29/21 A2987 RMK A01 T02890213  RH  064%=      5-min Rain = 0
KHA3 252305Z 17016KT 29/21 A2986 RMK A01 T02880213  RH  064%=      5-min Rain = 0
KHA3 252306Z 17016KT 29/21 A2986 RMK A01 T02870213  RH  064%=      5-min Rain = 0
KHA3 252307Z 17018KT 29/21 A2986 RMK A01 T02860213  RH  064%=      5-min Rain = 0
KHA3 252308Z 17020G25KT 29/21 A2986 RMK A01 T02850211  RH  064%=      5-min Rain = 0
KHA3 252309Z 17019KT 29/21 A2986 RMK A01 T02860212  RH  064%=      5-min Rain = 0
KHA3 252310Z 16016G21KT 29/21 A2986 RMK A01 T02850213  RH  065%=      5-min Rain = 0
KHA3 252311Z 17016KT 28/21 A2986 RMK A01 T02840213  RH  065%=      5-min Rain = 0
KHA3 252312Z 16015G20KT 28/21 A2986 RMK A01 T02830212  RH  065%=      5-min Rain = 0
KHA3 252313Z 16017KT 28/21 A2986 RMK A01 T02830213  RH  066%=      5-min Rain = 0
KHA3 252314Z 17016KT 28/21 A2986 RMK A01 T02830213  RH  066%=      5-min Rain = 0
KHA3 252315Z 16015KT 28/21 A2986 RMK A01 T02820213  RH  066%=      5-min Rain = 0
KHA3 252316Z 16015KT 28/22 A2986 RMK A01 T02820215  RH  067%=      5-min Rain = 0
KHA3 252317Z 17014KT 28/21 A2986 RMK A01 T02820214  RH  067%=      5-min Rain = 0
KHA3 252318Z 16015KT 28/22 A2986 RMK A01 T02810215  RH  067%=      5-min Rain = 0
KHA3 252319Z 16013KT 28/21 A2986 RMK A01 T02810214  RH  067%=      5-min Rain = 0
KHA3 252320Z 16013KT 28/21 A2986 RMK A01 T02800214  RH  067%=      5-min Rain = 0
KHA3 252321Z 16017G22KT 28/21 A2986 RMK A01 T02800213  RH  067%=      5-min Rain = 0
KHA3 252322Z 17012KT 28/21 A2986 RMK A01 T02810213  RH  067%=      5-min Rain = 0
KHA3 252323Z 16012KT 28/22 A2986 RMK A01 T02810215  RH  067%=      5-min Rain = 0
KHA3 252324Z 15012KT 28/21 A2986 RMK A01 T02800214  RH  067%=      5-min Rain = 0
KHA3 252325Z 15013KT 28/21 A2986 RMK A01 T02800214  RH  067%=      5-min Rain = 0
KHA3 252326Z 15014KT 28/21 A2986 RMK A01 T02800213  RH  067%=      5-min Rain = 0
KHA3 252327Z 16013KT 28/21 A2986 RMK A01 T02800212  RH  067%=      5-min Rain = 0
KHA3 252328Z 15012KT 28/21 A2986 RMK A01 T02800212  RH  067%=      5-min Rain = 0
KHA3 252329Z 16014KT 28/21 A2985 RMK A01 T02800211  RH  066%=      5-min Rain = 0
KHA3 252330Z 15015KT 28/21 A2985 RMK A01 T02800211  RH  066%=      5-min Rain = 0
KHA3 252331Z 15014KT 28/21 A2986 RMK A01 T02800211  RH  066%=      5-min Rain = 0
KHA3 252332Z 15014KT 28/21 A2986 RMK A01 T02800211  RH  066%=      5-min Rain = 0
KHA3 252333Z 15011KT 28/21 A2986 RMK A01 T02800212  RH  066%=      5-min Rain = 0
KHA3 252334Z 15012KT 28/21 A2986 RMK A01 T02800213  RH  067%=      5-min Rain = 0
KHA3 252335Z 15015KT 28/21 A2986 RMK A01 T02800213  RH  067%=      5-min Rain = 0
KHA3 252336Z 15014KT 28/21 A2986 RMK A01 T02800213  RH  067%=      5-min Rain = 0
KHA3 252337Z 16011KT 28/21 A2987 RMK A01 T02800214  RH  067%=      5-min Rain = 0
KHA3 252338Z 16012KT 28/21 A2987 RMK A01 T02800214  RH  068%=      5-min Rain = 0
KHA3 252339Z 15012KT 28/21 A2987 RMK A01 T02790213  RH  067%=      5-min Rain = 0
KHA3 252340Z 15012KT 28/22 A2987 RMK A01 T02800215  RH  068%=      5-min Rain = 0
KHA3 252341Z 15013G18KT 28/22 A2987 RMK A01 T02790215  RH  068%=      5-min Rain = 0
KHA3 252342Z 16014KT 28/21 A2987 RMK A01 T02790213  RH  068%=      5-min Rain = 0
KHA3 252343Z 15012G17KT 28/21 A2987 RMK A01 T02790214  RH  068%=      5-min Rain = 0
KHA3 252344Z 16013G19KT 28/21 A2987 RMK A01 T02790214  RH  068%=      5-min Rain = 0
KHA3 252345Z 16013KT 28/21 A2988 RMK A01 T02790214  RH  068%=      5-min Rain = 0
KHA3 252346Z 16011KT 28/21 A2988 RMK A01 T02790214  RH  068%=      5-min Rain = 0
KHA3 252347Z 16011KT 28/22 A2988 RMK A01 T02790215  RH  068%=      5-min Rain = 0
KHA3 252348Z 16013KT 28/22 A2988 RMK A01 T02780215  RH  068%=      5-min Rain = 0
KHA3 252349Z 16011KT 28/22 A2988 RMK A01 T02780215  RH  068%=      5-min Rain = 0
KHA3 252350Z 16016KT 28/21 A2988 RMK A01 T02780214  RH  068%=      5-min Rain = 0
KHA3 252351Z 16014KT 28/21 A2988 RMK A01 T02780214  RH  068%=      5-min Rain = 0
KHA3 252352Z 16013KT 28/21 A2988 RMK A01 T02780214  RH  068%=      5-min Rain = 0
KHA3 252353Z 16014KT 28/21 A2988 RMK A01 T02780213  RH  068%=      5-min Rain = 0
KHA3 252354Z 16014KT 28/21 A2989 RMK A01 T02780214  RH  068%=      5-min Rain = 0
KHA3 252355Z 16012G17KT 28/21 A2988 RMK A01 T02780212  RH  068%=      5-min Rain = 0
KHA3 252356Z 17014KT 28/21 A2989 RMK A01 T02780213  RH  068%=      5-min Rain = 0
KHA3 252357Z 17010KT 28/21 A2989 RMK A01 T02770214  RH  068%=      5-min Rain = 0
KHA3 252358Z 17012KT 28/21 A2989 RMK A01 T02770214  RH  069%=      5-min Rain = 0
KHA3 252359Z 17012KT 28/21 A2989 RMK A01 T02760213  RH  068%=      5-min Rain = 0
KHA3 260000Z 17012KT 28/21 A2988 RMK A01 T02760213  RH  069%=      5-min Rain = 0
KHA3 260001Z 17014KT 28/21 A2988 RMK A01 T02760212  RH  068%=      5-min Rain = 0
KHA3 260002Z 17014KT 28/21 A2988 RMK A01 T02760213  RH  068%=      5-min Rain = 0
KHA3 260003Z 17014KT 28/21 A2989 RMK A01 T02760213  RH  068%=      5-min Rain = 0
KHA3 260004Z 17012KT 28/21 A2989 RMK A01 T02760213  RH  068%=      5-min Rain = 0
KHA3 260005Z 17013KT 28/21 A2989 RMK A01 T02760214  RH  069%=      5-min Rain = 0
KHA3 260006Z 17015KT 28/21 A2989 RMK A01 T02750212  RH  069%=      5-min Rain = 0
KHA3 260007Z 17013KT 28/21 A2989 RMK A01 T02750212  RH  068%=      5-min Rain = 0
KHA3 260008Z 17011G16KT 28/21 A2989 RMK A01 T02750214  RH  069%=      5-min Rain = 0
KHA3 260009Z 17014KT 27/21 A2989 RMK A01 T02740212  RH  069%=      5-min Rain = 0
KHA3 260010Z 16012KT 27/21 A2989 RMK A01 T02740213  RH  069%=      5-min Rain = 0
KHA3 260011Z 16013KT 27/21 A2989 RMK A01 T02740212  RH  069%=      5-min Rain = 0
KHA3 260012Z 16013KT 27/21 A2989 RMK A01 T02740212  RH  069%=      5-min Rain = 0
KHA3 260013Z 16012KT 27/21 A2989 RMK A01 T02730213  RH  069%=      5-min Rain = 0
KHA3 260014Z 16011KT 27/21 A2989 RMK A01 T02730213  RH  070%=      5-min Rain = 0
KHA3 260015Z 16011KT 27/21 A2989 RMK A01 T02730213  RH  070%=      5-min Rain = 0
KHA3 260016Z 16011KT 27/21 A2989 RMK A01 T02720213  RH  070%=      5-min Rain = 0
KHA3 260017Z 16013KT 27/21 A2988 RMK A01 T02710212  RH  070%=      5-min Rain = 0
KHA3 260018Z 16011KT 27/21 A2988 RMK A01 T02720212  RH  070%=      5-min Rain = 0
KHA3 260019Z 17009KT 27/21 A2988 RMK A01 T02720213  RH  070%=      5-min Rain = 0
KHA3 260020Z 17010KT 27/21 A2988 RMK A01 T02720213  RH  070%=      5-min Rain = 0
KHA3 260021Z 18012KT 27/21 A2988 RMK A01 T02710213  RH  070%=      5-min Rain = 0
KHA3 260022Z 16011KT 27/21 A2988 RMK A01 T02710211  RH  070%=      5-min Rain = 0
KHA3 260023Z 16008KT 27/21 A2988 RMK A01 T02720214  RH  071%=      5-min Rain = 0
KHA3 260024Z 16011KT 27/21 A2988 RMK A01 T02710214  RH  071%=      5-min Rain = 0
KHA3 260025Z 16010KT 27/21 A2988 RMK A01 T02710213  RH  071%=      5-min Rain = 0
KHA3 260026Z 16011KT 27/21 A2988 RMK A01 T02700213  RH  071%=      5-min Rain = 0
KHA3 260027Z 15011KT 27/21 A2988 RMK A01 T02700213  RH  071%=      5-min Rain = 0
KHA3 260028Z 16013KT 27/21 A2987 RMK A01 T02710212  RH  070%=      5-min Rain = 0
KHA3 260029Z 16011KT 27/21 A2987 RMK A01 T02710212  RH  070%=      5-min Rain = 0
KHA3 260030Z 16012KT 27/21 A2987 RMK A01 T02720212  RH  070%=      5-min Rain = 0
KHA3 260031Z 15010KT 27/21 A2987 RMK A01 T02710213  RH  070%=      5-min Rain = 0
KHA3 260032Z 16011KT 27/21 A2987 RMK A01 T02700212  RH  071%=      5-min Rain = 0
KHA3 260033Z 15013KT 27/21 A2987 RMK A01 T02700213  RH  071%=      5-min Rain = 0
KHA3 260034Z 16013KT 27/21 A2987 RMK A01 T02690211  RH  071%=      5-min Rain = 0
KHA3 260035Z 16012KT 27/21 A2987 RMK A01 T02700212  RH  071%=      5-min Rain = 0
KHA3 260036Z 15011KT 27/21 A2987 RMK A01 T02700212  RH  071%=      5-min Rain = 0
KHA3 260037Z 16012KT 27/21 A2987 RMK A01 T02700213  RH  071%=      5-min Rain = 0
KHA3 260038Z 16012KT 27/21 A2987 RMK A01 T02700213  RH  071%=      5-min Rain = 0
KHA3 260039Z 16012KT 27/21 A2987 RMK A01 T02690212  RH  071%=      5-min Rain = 0
KHA3 260040Z 16011KT 27/21 A2987 RMK A01 T02690212  RH  071%=      5-min Rain = 0
KHA3 260041Z 16010KT 27/21 A2987 RMK A01 T02690213  RH  071%=      5-min Rain = 0
KHA3 260042Z 16010KT 27/21 A2987 RMK A01 T02690213  RH  071%=      5-min Rain = 0
KHA3 260043Z 16011KT 27/21 A2987 RMK A01 T02680213  RH  072%=      5-min Rain = 0
KHA3 260044Z 16011KT 27/21 A2987 RMK A01 T02680212  RH  071%=      5-min Rain = 0
KHA3 260045Z 16008KT 27/21 A2987 RMK A01 T02680212  RH  071%=      5-min Rain = 0
KHA3 260046Z 17011KT 27/21 A2987 RMK A01 T02680212  RH  072%=      5-min Rain = 0
KHA3 260047Z 16011KT 27/21 A2987 RMK A01 T02680211  RH  071%=      5-min Rain = 0
KHA3 260048Z 16010KT 27/21 A2987 RMK A01 T02680212  RH  071%=      5-min Rain = 0
KHA3 260049Z 16009KT 27/21 A2988 RMK A01 T02680213  RH  072%=      5-min Rain = 0
KHA3 260050Z 16009KT 27/21 A2987 RMK A01 T02670213  RH  072%=      5-min Rain = 0
KHA3 260051Z 15009KT 27/21 A2987 RMK A01 T02670213  RH  072%=      5-min Rain = 0
KHA3 260052Z 16009KT 27/21 A2987 RMK A01 T02670213  RH  072%=      5-min Rain = 0
KHA3 260053Z 16010KT 27/21 A2988 RMK A01 T02660212  RH  072%=      5-min Rain = 0
KHA3 260054Z 16008KT 27/21 A2988 RMK A01 T02670213  RH  072%=      5-min Rain = 0
KHA3 260055Z 16009KT 27/21 A2988 RMK A01 T02670212  RH  072%=      5-min Rain = 0
KHA3 260056Z 16008KT 27/21 A2988 RMK A01 T02670213  RH  072%=      5-min Rain = 0
KHA3 260057Z 16008KT 27/21 A2988 RMK A01 T02670213  RH  072%=      5-min Rain = 0
KHA3 260058Z 16009KT 27/21 A2988 RMK A01 T02670213  RH  072%=      5-min Rain = 0
KHA3 260059Z 17008KT 27/21 A2989 RMK A01 T02670213  RH  072%=      5-min Rain = 0
KHA3 260100Z 16008KT 27/21 A2989 RMK A01 T02670213  RH  072%=      5-min Rain = 0
KHA3 260101Z 16007KT 27/21 A2989 RMK A01 T02660213  RH  073%=      5-min Rain = 0
KHA3 260102Z 16008KT 27/21 A2989 RMK A01 T02670214  RH  073%=      5-min Rain = 0
KHA3 260103Z 16007KT 27/21 A2989 RMK A01 T02660214  RH  073%=      5-min Rain = 0
KHA3 260104Z 16007KT 27/22 A2989 RMK A01 T02660215  RH  073%=      5-min Rain = 0
KHA3 260105Z 17008KT 27/22 A2989 RMK A01 T02660215  RH  074%=      5-min Rain = 0
KHA3 260106Z 16009KT 27/21 A2989 RMK A01 T02650214  RH  073%=      5-min Rain = 0
KHA3 260107Z 16008KT 27/21 A2989 RMK A01 T02650214  RH  073%=      5-min Rain = 0
KHA3 260108Z 16009KT 27/21 A2989 RMK A01 T02660214  RH  073%=      5-min Rain = 0
KHA3 260109Z 16009KT 27/21 A2989 RMK A01 T02660214  RH  073%=      5-min Rain = 0
KHA3 260110Z 16009KT 27/21 A2989 RMK A01 T02660213  RH  073%=      5-min Rain = 0
KHA3 260111Z 16010KT 27/21 A2989 RMK A01 T02660213  RH  073%=      5-min Rain = 0
KHA3 260112Z 16010KT 27/21 A2989 RMK A01 T02660212  RH  072%=      5-min Rain = 0
KHA3 260113Z 16010KT 27/21 A2989 RMK A01 T02670213  RH  072%=      5-min Rain = 0
KHA3 260114Z 15009KT 27/21 A2989 RMK A01 T02670213  RH  072%=      5-min Rain = 0
KHA3 260115Z 16009KT 27/21 A2989 RMK A01 T02670214  RH  073%=      5-min Rain = 0
KHA3 260116Z 17009KT 27/21 A2989 RMK A01 T02660214  RH  073%=      5-min Rain = 0
KHA3 260117Z 16008KT 27/21 A2989 RMK A01 T02650214  RH  073%=      5-min Rain = 0
KHA3 260118Z 17010KT 27/21 A2989 RMK A01 T02650214  RH  073%=      5-min Rain = 0
KHA3 260119Z 17008KT 27/21 A2989 RMK A01 T02650213  RH  073%=      5-min Rain = 0
KHA3 260120Z 16009KT 27/21 A2989 RMK A01 T02650214  RH  074%=      5-min Rain = 0
KHA3 260121Z 17010KT 26/21 A2989 RMK A01 T02640214  RH  074%=      5-min Rain = 0
KHA3 260122Z 17009KT 26/21 A2989 RMK A01 T02640213  RH  074%=      5-min Rain = 0
KHA3 260123Z 17010KT 26/21 A2989 RMK A01 T02640214  RH  074%=      5-min Rain = 0
KHA3 260124Z 17010KT 26/21 A2989 RMK A01 T02630213  RH  074%=      5-min Rain = 0
KHA3 260125Z 17010KT 26/21 A299 RMK A01 T02640213  RH  073%=      5-min Rain = 0
KHA3 260126Z 17009KT 26/21 A299 RMK A01 T02640213  RH  074%=      5-min Rain = 0
KHA3 260127Z 17010KT 26/21 A299 RMK A01 T02630213  RH  074%=      5-min Rain = 0
KHA3 260128Z 16009KT 26/21 A299 RMK A01 T02630214  RH  074%=      5-min Rain = 0
KHA3 260129Z 17010KT 26/21 A299 RMK A01 T02630213  RH  074%=      5-min Rain = 0
KHA3 260130Z 17008KT 26/21 A299 RMK A01 T02630213  RH  074%=      5-min Rain = 0
KHA3 260131Z 17008KT 26/21 A299 RMK A01 T02620213  RH  075%=      5-min Rain = 0
KHA3 260132Z 17009KT 26/21 A299 RMK A01 T02610214  RH  075%=      5-min Rain = 0
KHA3 260133Z 17007KT 26/21 A299 RMK A01 T02600214  RH  075%=      5-min Rain = 0
KHA3 260134Z 17008KT 26/21 A299 RMK A01 T02590213  RH  075%=      5-min Rain = 0
KHA3 260135Z 17007KT 26/21 A299 RMK A01 T02590212  RH  075%=      5-min Rain = 0
KHA3 260136Z 17007KT 26/21 A299 RMK A01 T02590212  RH  075%=      5-min Rain = 0
KHA3 260137Z 16007KT 26/21 A299 RMK A01 T02590212  RH  075%=      5-min Rain = 0
KHA3 260138Z 16007KT 26/21 A299 RMK A01 T02590213  RH  076%=      5-min Rain = 0
KHA3 260139Z 16007KT 26/21 A299 RMK A01 T02580213  RH  076%=      5-min Rain = 0
KHA3 260140Z 16007KT 26/21 A299 RMK A01 T02570213  RH  076%=      5-min Rain = 0
KHA3 260141Z 16007KT 26/21 A299 RMK A01 T02560212  RH  077%=      5-min Rain = 0
KHA3 260142Z 17006KT 26/21 A299 RMK A01 T02560213  RH  077%=      5-min Rain = 0
KHA3 260143Z 17006KT 26/21 A299 RMK A01 T02550213  RH  077%=      5-min Rain = 0
KHA3 260144Z 17007KT 26/21 A299 RMK A01 T02550213  RH  078%=      5-min Rain = 0
KHA3 260145Z 17006KT 25/21 A299 RMK A01 T02540212  RH  077%=      5-min Rain = 0
KHA3 260146Z 17007KT 25/21 A299 RMK A01 T02540212  RH  077%=      5-min Rain = 0
KHA3 260147Z 17007KT 25/21 A299 RMK A01 T02540212  RH  077%=      5-min Rain = 0
KHA3 260148Z 17006KT 25/21 A299 RMK A01 T02540212  RH  077%=      5-min Rain = 0
KHA3 260149Z 17006KT 25/21 A299 RMK A01 T02540213  RH  078%=      5-min Rain = 0
KHA3 260150Z 17006KT 25/21 A299 RMK A01 T02530212  RH  078%=      5-min Rain = 0
KHA3 260151Z 17007KT 25/21 A2991 RMK A01 T02520212  RH  078%=      5-min Rain = 0
KHA3 260152Z 17007KT 25/21 A2991 RMK A01 T02520212  RH  078%=      5-min Rain = 0
KHA3 260153Z 17007KT 25/21 A299 RMK A01 T02510212  RH  079%=      5-min Rain = 0
KHA3 260154Z 17006KT 25/21 A299 RMK A01 T02510212  RH  079%=      5-min Rain = 0
KHA3 260155Z 17007KT 25/21 A299 RMK A01 T02510211  RH  079%=      5-min Rain = 0
KHA3 260156Z 17008KT 25/21 A299 RMK A01 T02510211  RH  079%=      5-min Rain = 0
KHA3 260157Z 17007KT 25/21 A299 RMK A01 T02500211  RH  079%=      5-min Rain = 0
KHA3 260158Z 17008KT 25/21 A299 RMK A01 T02500211  RH  079%=      5-min Rain = 0
KHA3 260159Z 17008KT 25/21 A299 RMK A01 T02510211  RH  079%=      5-min Rain = 0
KHA3 260200Z 17008KT 25/21 A299 RMK A01 T02500211  RH  079%=      5-min Rain = 0
KHA3 260201Z 17009KT 25/21 A299 RMK A01 T02500212  RH  079%=      5-min Rain = 0
KHA3 260202Z 17009KT 25/21 A299 RMK A01 T02500211  RH  079%=      5-min Rain = 0
KHA3 260203Z 18009KT 25/21 A299 RMK A01 T02500212  RH  079%=      5-min Rain = 0
KHA3 260204Z 17009KT 25/21 A299 RMK A01 T02500211  RH  079%=      5-min Rain = 0
KHA3 260205Z 17009KT 25/21 A299 RMK A01 T02510211  RH  078%=      5-min Rain = 0
KHA3 260206Z 18009KT 25/21 A299 RMK A01 T02520211  RH  078%=      5-min Rain = 0
KHA3 260207Z 17010KT 25/21 A299 RMK A01 T02530211  RH  078%=      5-min Rain = 0
KHA3 260208Z 17009KT 25/21 A299 RMK A01 T02530212  RH  078%=      5-min Rain = 0
KHA3 260209Z 17009KT 25/21 A299 RMK A01 T02540212  RH  077%=      5-min Rain = 0
KHA3 260210Z 17009KT 25/21 A299 RMK A01 T02540212  RH  077%=      5-min Rain = 0
KHA3 260211Z 17009KT 26/21 A299 RMK A01 T02550211  RH  077%=      5-min Rain = 0
KHA3 260212Z 17008KT 26/21 A2991 RMK A01 T02550212  RH  077%=      5-min Rain = 0
KHA3 260213Z 17009KT 26/21 A2991 RMK A01 T02550212  RH  077%=      5-min Rain = 0
KHA3 260214Z 17009KT 26/21 A2991 RMK A01 T02550212  RH  077%=      5-min Rain = 0
KHA3 260215Z 17009KT 26/21 A2991 RMK A01 T02550212  RH  077%=      5-min Rain = 0
KHA3 260216Z 17008KT 26/21 A2991 RMK A01 T02550212  RH  077%=      5-min Rain = 0
KHA3 260217Z 17008KT 26/21 A2991 RMK A01 T02550212  RH  077%=      5-min Rain = 0
KHA3 260218Z 17008KT 26/21 A2991 RMK A01 T02550212  RH  077%=      5-min Rain = 0
KHA3 260219Z 17008KT 26/21 A2991 RMK A01 T02550212  RH  077%=      5-min Rain = 0
KHA3 260220Z 17007KT 26/21 A2991 RMK A01 T02550213  RH  077%=      5-min Rain = 0
KHA3 260221Z 17008KT 26/21 A2991 RMK A01 T02550212  RH  077%=      5-min Rain = 0
KHA3 260222Z 17007KT 26/21 A2991 RMK A01 T02560212  RH  077%=      5-min Rain = 0
KHA3 260223Z 16006KT 26/21 A2991 RMK A01 T02560213  RH  077%=      5-min Rain = 0
KHA3 260224Z 16006KT 26/21 A2991 RMK A01 T02560214  RH  077%=      5-min Rain = 0
KHA3 260225Z 16007KT 26/21 A2991 RMK A01 T02550213  RH  078%=      5-min Rain = 0
KHA3 260226Z 16006KT 25/21 A2991 RMK A01 T02540213  RH  078%=      5-min Rain = 0
KHA3 260227Z 16006KT 25/21 A2991 RMK A01 T02540214  RH  078%=      5-min Rain = 0
KHA3 260228Z 16007KT 25/21 A2991 RMK A01 T02540213  RH  078%=      5-min Rain = 0
KHA3 260229Z 16007KT 25/21 A2991 RMK A01 T02540212  RH  078%=      5-min Rain = 0
KHA3 260230Z 16007KT 25/21 A2991 RMK A01 T02540213  RH  078%=      5-min Rain = 0
KHA3 260231Z 16007KT 25/21 A2991 RMK A01 T02540213  RH  078%=      5-min Rain = 0
KHA3 260232Z 15007KT 25/21 A2991 RMK A01 T02540212  RH  078%=      5-min Rain = 0
KHA3 260233Z 16006KT 25/21 A2991 RMK A01 T02540212  RH  078%=      5-min Rain = 0
KHA3 260234Z 15006KT 25/21 A2991 RMK A01 T02540213  RH  078%=      5-min Rain = 0
KHA3 260235Z 15006KT 25/21 A2991 RMK A01 T02540212  RH  078%=      5-min Rain = 0
KHA3 260236Z 15007KT 25/21 A2991 RMK A01 T02540213  RH  078%=      5-min Rain = 0
KHA3 260237Z 15007KT 25/21 A2991 RMK A01 T02530213  RH  078%=      5-min Rain = 0
KHA3 260238Z 15007KT 25/21 A2991 RMK A01 T02540213  RH  078%=      5-min Rain = 0
KHA3 260239Z 15007KT 25/21 A2991 RMK A01 T02530212  RH  078%=      5-min Rain = 0
KHA3 260240Z 15006KT 25/21 A2991 RMK A01 T02530212  RH  078%=      5-min Rain = 0
KHA3 260241Z 15007KT 25/21 A2991 RMK A01 T02530212  RH  078%=      5-min Rain = 0
KHA3 260242Z 15006KT 25/21 A2991 RMK A01 T02530212  RH  078%=      5-min Rain = 0
KHA3 260243Z 15007KT 25/21 A2991 RMK A01 T02530212  RH  078%=      5-min Rain = 0
KHA3 260244Z 14007KT 25/21 A2991 RMK A01 T02530212  RH  078%=      5-min Rain = 0
KHA3 260245Z 14008KT 25/21 A2991 RMK A01 T02530212  RH  078%=      5-min Rain = 0
KHA3 260246Z 15008KT 25/21 A2991 RMK A01 T02520211  RH  078%=      5-min Rain = 0
KHA3 260247Z 15008KT 25/21 A2991 RMK A01 T02540211  RH  077%=      5-min Rain = 0
KHA3 260248Z 16008KT 26/21 A2991 RMK A01 T02550211  RH  077%=      5-min Rain = 0
KHA3 260249Z 16008KT 26/21 A2991 RMK A01 T02550212  RH  077%=      5-min Rain = 0
KHA3 260250Z 15009KT 26/21 A2991 RMK A01 T02550212  RH  077%=      5-min Rain = 0
KHA3 260251Z 15008KT 26/21 A299 RMK A01 T02550211  RH  077%=      5-min Rain = 0
KHA3 260252Z 15008KT 26/21 A299 RMK A01 T02550211  RH  077%=      5-min Rain = 0
KHA3 260253Z 15009KT 26/21 A299 RMK A01 T02550211  RH  077%=      5-min Rain = 0
KHA3 260254Z 15008KT 25/21 A2991 RMK A01 T02540211  RH  077%=      5-min Rain = 0
KHA3 260255Z 15009KT 25/21 A2991 RMK A01 T02540211  RH  077%=      5-min Rain = 0
KHA3 260256Z 15009KT 25/21 A2991 RMK A01 T02530211  RH  077%=      5-min Rain = 0
KHA3 260257Z 15008KT 25/21 A2991 RMK A01 T02530211  RH  077%=      5-min Rain = 0
KHA3 260258Z 15008KT 25/21 A2991 RMK A01 T02530211  RH  078%=      5-min Rain = 0
KHA3 260259Z 15008KT 25/21 A2991 RMK A01 T02520212  RH  078%=      5-min Rain = 0
KHA3 260300Z 15008KT 25/21 A2991 RMK A01 T02510212  RH  079%=      5-min Rain = 0
KHA3 260301Z 15008KT 25/21 A2991 RMK A01 T02510212  RH  079%=      5-min Rain = 0
KHA3 260302Z 15009KT 25/21 A2991 RMK A01 T02510212  RH  079%=      5-min Rain = 0
KHA3 260303Z 15008KT 25/21 A2991 RMK A01 T02510211  RH  079%=      5-min Rain = 0
KHA3 260304Z 15007KT 25/21 A2991 RMK A01 T02520212  RH  079%=      5-min Rain = 0
KHA3 260305Z 15008KT 25/21 A2991 RMK A01 T02520213  RH  079%=      5-min Rain = 0
KHA3 260306Z 16009KT 25/21 A2991 RMK A01 T02520213  RH  079%=      5-min Rain = 0
KHA3 260307Z 15009KT 25/21 A2991 RMK A01 T02520212  RH  079%=      5-min Rain = 0
KHA3 260308Z 14008KT 25/21 A2991 RMK A01 T02520212  RH  079%=      5-min Rain = 0
KHA3 260309Z 15007KT 25/21 A2991 RMK A01 T02520213  RH  079%=      5-min Rain = 0
KHA3 260310Z 15009KT 25/21 A2992 RMK A01 T02510213  RH  079%=      5-min Rain = 0
KHA3 260311Z 14009KT 25/21 A2992 RMK A01 T02510213  RH  079%=      5-min Rain = 0
KHA3 260312Z 15008KT 25/21 A2992 RMK A01 T02510212  RH  079%=      5-min Rain = 0
KHA3 260313Z 14007KT 25/21 A2992 RMK A01 T02510213  RH  079%=      5-min Rain = 0
KHA3 260314Z 14008KT 25/21 A2991 RMK A01 T02510213  RH  079%=      5-min Rain = 0
KHA3 260315Z 14008KT 25/21 A2991 RMK A01 T02510213  RH  079%=      5-min Rain = 0
KHA3 260316Z 14007KT 25/21 A2991 RMK A01 T02510213  RH  079%=      5-min Rain = 0
KHA3 260317Z 14008KT 25/21 A2991 RMK A01 T02510213  RH  079%=      5-min Rain = 0
KHA3 260318Z 14007KT 25/21 A2991 RMK A01 T02510213  RH  080%=      5-min Rain = 0
KHA3 260319Z 14008KT 25/21 A2991 RMK A01 T02500213  RH  080%=      5-min Rain = 0
KHA3 260320Z 14008KT 25/21 A2991 RMK A01 T02500213  RH  080%=      5-min Rain = 0
KHA3 260321Z 14009KT 25/21 A2992 RMK A01 T02500212  RH  080%=      5-min Rain = 0
KHA3 260322Z 14009KT 25/21 A2992 RMK A01 T02510212  RH  079%=      5-min Rain = 0
KHA3 260323Z 14008KT 25/21 A2992 RMK A01 T02510213  RH  079%=      5-min Rain = 0
KHA3 260324Z 14009KT 25/21 A2992 RMK A01 T02510213  RH  079%=      5-min Rain = 0
KHA3 260325Z 14009KT 25/21 A2992 RMK A01 T02510212  RH  079%=      5-min Rain = 0
KHA3 260326Z 14008KT 25/21 A2992 RMK A01 T02510213  RH  079%=      5-min Rain = 0
KHA3 260327Z 14008KT 25/21 A2992 RMK A01 T02510213  RH  079%=      5-min Rain = 0
KHA3 260328Z 13009KT 25/21 A2992 RMK A01 T02510212  RH  079%=      5-min Rain = 0
KHA3 260329Z 14008KT 25/21 A2992 RMK A01 T02510212  RH  079%=      5-min Rain = 0
KHA3 260330Z 14009KT 25/21 A2992 RMK A01 T02510213  RH  079%=      5-min Rain = 0
KHA3 260331Z 14010KT 25/21 A2992 RMK A01 T02510213  RH  080%=      5-min Rain = 0
KHA3 260332Z 13008KT 25/21 A2992 RMK A01 T02510213  RH  079%=      5-min Rain = 0
KHA3 260333Z 13009KT 25/21 A2992 RMK A01 T02510212  RH  079%=      5-min Rain = 0
KHA3 260334Z 14009KT 25/21 A2992 RMK A01 T02510212  RH  079%=      5-min Rain = 0
KHA3 260335Z 14009KT 25/21 A2992 RMK A01 T02520212  RH  079%=      5-min Rain = 0
KHA3 260336Z 14010KT 25/21 A2992 RMK A01 T02520213  RH  079%=      5-min Rain = 0
KHA3 260337Z 13010KT 25/21 A2992 RMK A01 T02520213  RH  079%=      5-min Rain = 0
KHA3 260338Z 14010KT 25/21 A2992 RMK A01 T02520212  RH  079%=      5-min Rain = 0
KHA3 260339Z 14010KT 25/21 A2992 RMK A01 T02530213  RH  079%=      5-min Rain = 0
KHA3 260340Z 14010KT 25/21 A2992 RMK A01 T02520213  RH  079%=      5-min Rain = 0
KHA3 260341Z 14009KT 25/21 A2992 RMK A01 T02520213  RH  079%=      5-min Rain = 0
KHA3 260342Z 14010KT 25/21 A2992 RMK A01 T02520213  RH  079%=      5-min Rain = 0
KHA3 260343Z 14010KT 25/21 A2992 RMK A01 T02520213  RH  079%=      5-min Rain = 0
KHA3 260344Z 14011KT 25/21 A2992 RMK A01 T02520212  RH  079%=      5-min Rain = 0
KHA3 260345Z 14010KT 25/21 A2992 RMK A01 T02520212  RH  078%=      5-min Rain = 0
KHA3 260346Z 13011KT 25/21 A2992 RMK A01 T02520212  RH  078%=      5-min Rain = 0
KHA3 260347Z 13011KT 25/21 A2992 RMK A01 T02520212  RH  078%=      5-min Rain = 0
KHA3 260348Z 13010KT 25/21 A2992 RMK A01 T02520212  RH  078%=      5-min Rain = 0
KHA3 260349Z 14009KT 25/21 A2992 RMK A01 T02520212  RH  078%=      5-min Rain = 0
KHA3 260350Z 14009KT 25/21 A2992 RMK A01 T02520212  RH  078%=      5-min Rain = 0
KHA3 260351Z 13010KT 25/21 A2992 RMK A01 T02520212  RH  078%=      5-min Rain = 0
KHA3 260352Z 13010KT 25/21 A2992 RMK A01 T02520212  RH  078%=      5-min Rain = 0
KHA3 260353Z 13009KT 25/21 A2992 RMK A01 T02520212  RH  078%=      5-min Rain = 0
KHA3 260354Z 13009KT 25/21 A2992 RMK A01 T02510212  RH  079%=      5-min Rain = 0
KHA3 260355Z 13009KT 25/21 A2992 RMK A01 T02500212  RH  079%=      5-min Rain = 0
KHA3 260356Z 13009KT 25/21 A2992 RMK A01 T02500212  RH  080%=      5-min Rain = 0
KHA3 260357Z 13008KT 25/21 A2992 RMK A01 T02490212  RH  080%=      5-min Rain = 0
KHA3 260358Z 13008KT 25/21 A2992 RMK A01 T02490212  RH  080%=      5-min Rain = 0
KHA3 260359Z 12008KT 25/21 A2992 RMK A01 T02480212  RH  080%=      5-min Rain = 0
KHA3 260400Z 12009KT 25/21 A2992 RMK A01 T02470212  RH  081%=      5-min Rain = 0
KHA3 260401Z 12009KT 25/21 A2992 RMK A01 T02470212  RH  081%=      5-min Rain = 0
KHA3 260402Z 11009KT 25/21 A2992 RMK A01 T02470212  RH  081%=      5-min Rain = 0
KHA3 260403Z 11008KT 25/21 A2992 RMK A01 T02460212  RH  081%=      5-min Rain = 0
KHA3 260404Z 11008KT 25/21 A2992 RMK A01 T02450212  RH  082%=      5-min Rain = 0
KHA3 260405Z 11008KT 24/21 A2992 RMK A01 T02440212  RH  082%=      5-min Rain = 0
KHA3 260406Z 11008KT 24/21 A2992 RMK A01 T02430212  RH  083%=      5-min Rain = 0
KHA3 260407Z 11008KT 24/21 A2992 RMK A01 T02430212  RH  083%=      5-min Rain = 0
KHA3 260408Z 10007KT 24/21 A2992 RMK A01 T02420212  RH  083%=      5-min Rain = 0
KHA3 260409Z 10008KT 24/21 A2992 RMK A01 T02420212  RH  084%=      5-min Rain = 0
KHA3 260410Z 10008KT 24/21 A2992 RMK A01 T02410212  RH  084%=      5-min Rain = 0
KHA3 260411Z 10008KT 24/21 A2992 RMK A01 T02410213  RH  084%=      5-min Rain = 0
KHA3 260412Z 10008KT 24/21 A2992 RMK A01 T02400212  RH  084%=      5-min Rain = 0
KHA3 260413Z 10008KT 24/21 A2993 RMK A01 T02390212  RH  085%=      5-min Rain = 0
KHA3 260414Z 10008KT 24/21 A2993 RMK A01 T02380212  RH  085%=      5-min Rain = 0
KHA3 260415Z 10008KT 24/21 A2993 RMK A01 T02380212  RH  086%=      5-min Rain = 0
KHA3 260416Z 10008KT 24/21 A2993 RMK A01 T02370212  RH  086%=      5-min Rain = 0
KHA3 260417Z 10008KT 24/21 A2993 RMK A01 T02370212  RH  086%=      5-min Rain = 0
KHA3 260418Z 10008KT 24/21 A2993 RMK A01 T02360213  RH  086%=      5-min Rain = 0
KHA3 260419Z 10008KT 24/21 A2993 RMK A01 T02360213  RH  087%=      5-min Rain = 0
KHA3 260420Z 10008KT 24/21 A2993 RMK A01 T02360212  RH  087%=      5-min Rain = 0
KHA3 260421Z 10008KT 24/21 A2993 RMK A01 T02360213  RH  087%=      5-min Rain = 0
KHA3 260422Z 10009KT 24/21 A2993 RMK A01 T02350213  RH  087%=      5-min Rain = 0
KHA3 260423Z 10009KT 24/21 A2993 RMK A01 T02350213  RH  087%=      5-min Rain = 0
KHA3 260424Z 10009KT 24/21 A2993 RMK A01 T02350213  RH  087%=      5-min Rain = 0
KHA3 260425Z 10008KT 24/21 A2993 RMK A01 T02350213  RH  087%=      5-min Rain = 0
KHA3 260426Z 10008KT 24/21 A2993 RMK A01 T02350213  RH  087%=      5-min Rain = 0
KHA3 260427Z 10008KT 24/21 A2993 RMK A01 T02350213  RH  087%=      5-min Rain = 0
KHA3 260428Z 10008KT 24/21 A2993 RMK A01 T02350213  RH  088%=      5-min Rain = 0
KHA3 260429Z 10008KT 23/21 A2993 RMK A01 T02340213  RH  088%=      5-min Rain = 0
KHA3 260430Z 11009KT 23/21 A2993 RMK A01 T02340213  RH  088%=      5-min Rain = 0
KHA3 260431Z 11009KT 23/21 A2993 RMK A01 T02330212  RH  088%=      5-min Rain = 0
KHA3 260432Z 10009KT 23/21 A2993 RMK A01 T02330212  RH  088%=      5-min Rain = 0
KHA3 260433Z 11008KT 23/21 A2993 RMK A01 T02330212  RH  088%=      5-min Rain = 0
KHA3 260434Z 11008KT 23/21 A2994 RMK A01 T02330212  RH  088%=      5-min Rain = 0
KHA3 260435Z 11009KT 23/21 A2994 RMK A01 T02330212  RH  088%=      5-min Rain = 0
KHA3 260436Z 11008KT 23/21 A2994 RMK A01 T02320212  RH  088%=      5-min Rain = 0
KHA3 260437Z 11008KT 23/21 A2994 RMK A01 T02320212  RH  089%=      5-min Rain = 0
KHA3 260438Z 11008KT 23/21 A2994 RMK A01 T02320212  RH  089%=      5-min Rain = 0
KHA3 260439Z 11008KT 23/21 A2994 RMK A01 T02310212  RH  089%=      5-min Rain = 0
KHA3 260440Z 11008KT 23/21 A2994 RMK A01 T02310212  RH  089%=      5-min Rain = 0
KHA3 260441Z 11009KT 23/21 A2994 RMK A01 T02310212  RH  089%=      5-min Rain = 0
KHA3 260442Z 11009KT 23/21 A2994 RMK A01 T02310212  RH  089%=      5-min Rain = 0
KHA3 260443Z 11008KT 23/21 A2994 RMK A01 T02310212  RH  089%=      5-min Rain = 0
KHA3 260444Z 11009KT 23/21 A2994 RMK A01 T02320212  RH  089%=      5-min Rain = 0
KHA3 260445Z 12009KT 23/21 A2994 RMK A01 T02310211  RH  088%=      5-min Rain = 0
KHA3 260446Z 11009KT 23/21 A2994 RMK A01 T02320211  RH  088%=      5-min Rain = 0
KHA3 260447Z 12011KT 23/21 A2994 RMK A01 T02320211  RH  088%=      5-min Rain = 0
KHA3 260448Z 12010KT 23/21 A2994 RMK A01 T02330211  RH  088%=      5-min Rain = 0
KHA3 260449Z 12010KT 23/21 A2994 RMK A01 T02340211  RH  087%=      5-min Rain = 0
KHA3 260450Z 12011KT 24/21 A2994 RMK A01 T02350211  RH  087%=      5-min Rain = 0
KHA3 260451Z 12010KT 24/21 A2994 RMK A01 T02350211  RH  086%=      5-min Rain = 0
KHA3 260452Z 12009KT 24/21 A2994 RMK A01 T02350211  RH  086%=      5-min Rain = 0
KHA3 260453Z 12010KT 24/21 A2994 RMK A01 T02350211  RH  086%=      5-min Rain = 0
KHA3 260454Z 12011KT 24/21 A2994 RMK A01 T02350211  RH  086%=      5-min Rain = 0
KHA3 260455Z 12011KT 24/21 A2994 RMK A01 T02350211  RH  086%=      5-min Rain = 0
KHA3 260456Z 12010KT 24/21 A2994 RMK A01 T02360211  RH  086%=      5-min Rain = 0
KHA3 260457Z 12010KT 24/21 A2994 RMK A01 T02360211  RH  086%=      5-min Rain = 0
KHA3 260458Z 12012KT 24/21 A2994 RMK A01 T02360211  RH  086%=      5-min Rain = 0
KHA3 260459Z 12011KT 24/21 A2994 RMK A01 T02360210  RH  086%=      5-min Rain = 0

Page generated in 0.1225 seconds.